GFSMA_prec_precacc24_060.txt.gz
Total_Precipitation_Accumulation
0.44 0.30 0.20 0.03 0.01 0.01 0.01 0.00 0.00 0.00 0.00 0.00 0.00 0.00 0.00 0.00 0.00 0.00 0.00 0.00 0.00 0.00 0.00 0.00 0.00 0.00 0.00 0.00 0.00 0.00 0.00 0.00 0.00 0.03 0.03 0.03 0.05 0.10 0.11 0.11 0.13 0.13 0.10
0.21 0.12 0.08 0.06 0.04 0.02 0.00 0.00 0.00 0.00 0.00 0.00 0.00 0.00 0.00 0.00 0.00 0.00 0.00 0.00 0.00 0.00 0.00 0.00 0.00 0.00 0.00 0.00 0.00 0.00 0.00 0.00 0.00 0.00 0.03 0.06 0.07 0.08 0.09 0.10 0.14 0.21 0.24
0.12 0.08 0.04 0.02 0.01 0.00 0.00 0.00 0.00 0.00 0.00 0.00 0.00 0.00 0.00 0.00 0.00 0.00 0.00 0.00 0.00 0.00 0.00 0.00 0.00 0.00 0.00 0.00 0.00 0.00 0.00 0.00 0.00 0.00 0.01 0.02 0.04 0.07 0.08 0.08 0.15 0.19 0.22
0.07 0.02 0.00 0.01 0.00 0.00 0.00 0.00 0.00 0.00 0.00 0.00 0.00 0.00 0.00 0.00 0.00 0.00 0.00 0.00 0.00 0.00 0.00 0.00 0.00 0.00 0.00 0.00 0.00 0.00 0.00 0.00 0.00 0.00 0.01 0.01 0.01 0.02 0.05 0.07 0.09 0.16 0.28
0.00 0.00 0.00 0.00 0.00 0.00 0.00 0.00 0.00 0.00 0.00 0.00 0.00 0.00 0.00 0.00 0.00 0.00 0.00 0.00 0.00 0.00 0.00 0.00 0.00 0.00 0.00 0.00 0.00 0.00 0.00 0.00 0.00 0.00 0.00 0.01 0.01 0.01 0.02 0.04 0.05 0.07 0.23
0.00 0.00 0.00 0.00 0.00 0.00 0.00 0.00 0.00 0.00 0.00 0.00 0.00 0.00 0.00 0.00 0.00 0.00 0.00 0.00 0.00 0.00 0.00 0.00 0.00 0.00 0.00 0.00 0.00 0.00 0.00 0.00 0.01 0.01 0.01 0.01 0.01 0.01 0.01 0.02 0.02 0.03 0.05
0.00 0.00 0.00 0.00 0.00 0.00 0.00 0.00 0.00 0.00 0.00 0.00 0.00 0.00 0.00 0.00 0.00 0.00 0.00 0.00 0.00 0.00 0.00 0.00 0.00 0.00 0.00 0.00 0.00 0.00 0.00 0.00 0.00 0.02 0.03 0.02 0.01 0.01 0.01 0.01 0.01 0.01 0.01
0.00 0.00 0.00 0.00 0.00 0.00 0.00 0.00 0.00 0.00 0.00 0.00 0.00 0.00 0.00 0.00 0.00 0.00 0.00 0.00 0.00 0.00 0.00 0.00 0.00 0.00 0.00 0.00 0.00 0.00 0.00 0.00 0.00 0.02 0.04 0.04 0.03 0.02 0.02 0.01 0.01 0.01 0.01
0.00 0.00 0.00 0.00 0.00 0.00 0.00 0.00 0.00 0.00 0.00 0.00 0.00 0.00 0.00 0.00 0.00 0.00 0.00 0.00 0.00 0.00 0.00 0.00 0.00 0.00 0.00 0.00 0.00 0.00 0.00 0.00 0.01 0.02 0.03 0.04 0.04 0.04 0.03 0.02 0.02 0.02 0.02
0.00 0.00 0.00 0.00 0.00 0.00 0.00 0.00 0.00 0.00 0.00 0.00 0.00 0.00 0.00 0.00 0.01 0.01 0.00 0.00 0.00 0.00 0.00 0.00 0.00 0.00 0.00 0.00 0.00 0.00 0.00 0.00 0.00 0.01 0.02 0.04 0.07 0.07 0.05 0.03 0.02 0.03 0.04
0.00 0.00 0.00 0.00 0.00 0.00 0.00 0.00 0.00 0.00 0.00 0.00 0.00 0.00 0.00 0.00 0.01 0.04 0.03 0.01 0.00 0.00 0.00 0.00 0.00 0.00 0.00 0.00 0.00 0.00 0.01 0.00 0.01 0.01 0.02 0.03 0.05 0.07 0.09 0.10 0.06 0.05 0.05
0.00 0.00 0.00 0.00 0.00 0.00 0.00 0.00 0.00 0.00 0.00 0.01 0.01 0.03 0.05 0.06 0.05 0.08 0.12 0.07 0.02 0.00 0.00 0.00 0.00 0.00 0.00 0.00 0.00 0.00 0.00 0.00 0.01 0.03 0.06 0.06 0.06 0.06 0.06 0.08 0.12 0.13 0.08
0.00 0.00 0.00 0.00 0.00 0.00 0.00 0.00 0.01 0.01 0.02 0.04 0.05 0.06 0.06 0.05 0.06 0.08 0.13 0.09 0.05 0.02 0.00 0.00 0.00 0.00 0.00 0.00 0.00 0.00 0.00 0.01 0.02 0.01 0.06 0.10 0.13 0.18 0.22 0.17 0.16 0.21 0.29
0.00 0.01 0.00 0.00 0.00 0.00 0.01 0.01 0.02 0.03 0.05 0.07 0.08 0.07 0.06 0.06 0.07 0.06 0.11 0.13 0.11 0.01 0.00 0.00 0.00 0.00 0.00 0.00 0.00 0.00 0.00 0.01 0.02 0.03 0.04 0.06 0.11 0.15 0.21 0.18 0.18 0.16 0.14
0.00 0.00 0.00 0.00 0.00 0.00 0.01 0.01 0.03 0.05 0.07 0.07 0.08 0.09 0.06 0.04 0.02 0.01 0.02 0.03 0.08 0.07 0.01 0.00 0.00 0.00 0.00 0.00 0.00 0.00 0.00 0.00 0.01 0.02 0.05 0.09 0.09 0.05 0.13 0.26 0.30 0.23 0.21
0.00 0.00 0.00 0.00 0.00 0.00 0.01 0.03 0.04 0.05 0.06 0.06 0.04 0.03 0.02 0.01 0.00 0.00 0.00 0.00 0.01 0.06 0.02 0.00 0.00 0.00 0.00 0.00 0.00 0.00 0.00 0.00 0.00 0.01 0.03 0.07 0.14 0.18 0.17 0.19 0.23 0.27 0.28
0.00 0.00 0.00 0.00 0.00 0.00 0.02 0.04 0.04 0.03 0.02 0.01 0.01 0.01 0.00 0.00 0.00 0.00 0.00 0.00 0.00 0.00 0.00 0.00 0.00 0.00 0.00 0.00 0.00 0.00 0.00 0.00 0.00 0.00 0.01 0.04 0.09 0.16 0.21 0.20 0.18 0.18 0.27
0.00 0.00 0.00 0.00 0.00 0.01 0.03 0.02 0.01 0.00 0.00 0.00 0.00 0.00 0.00 0.00 0.00 0.00 0.00 0.00 0.00 0.00 0.00 0.00 0.00 0.00 0.00 0.00 0.00 0.00 0.00 0.00 0.00 0.00 0.00 0.00 0.01 0.05 0.09 0.12 0.14 0.17 0.22
0.00 0.00 0.00 0.00 0.01 0.01 0.01 0.00 0.00 0.00 0.00 0.00 0.00 0.00 0.00 0.00 0.00 0.00 0.00 0.00 0.00 0.00 0.01 0.02 0.01 0.00 0.00 0.00 0.00 0.00 0.00 0.00 0.00 0.00 0.00 0.00 0.01 0.01 0.02 0.02 0.03 0.05 0.07
0.00 0.00 0.00 0.01 0.01 0.01 0.02 0.01 0.00 0.00 0.00 0.00 0.01 0.00 0.00 0.00 0.00 0.00 0.00 0.00 0.01 0.01 0.01 0.02 0.01 0.00 0.00 0.00 0.00 0.01 0.01 0.00 0.00 0.00 0.00 0.00 0.00 0.00 0.01 0.01 0.01 0.01 0.01
0.00 0.01 0.02 0.02 0.03 0.04 0.02 0.00 0.00 0.00 0.01 0.01 0.00 0.00 0.00 0.00 0.00 0.00 0.01 0.00 0.01 0.02 0.01 0.01 0.01 0.01 0.01 0.01 0.02 0.02 0.04 0.02 0.01 0.01 0.01 0.00 0.00 0.01 0.01 0.01 0.02 0.01 0.02
0.03 0.06 0.04 0.04 0.01 0.00 0.00 0.00 0.00 0.00 0.00 0.00 0.00 0.00 0.00 0.00 0.00 0.00 0.00 0.00 0.01 0.02 0.04 0.05 0.05 0.05 0.03 0.04 0.07 0.09 0.07 0.05 0.04 0.03 0.05 0.03 0.03 0.02 0.01 0.01 0.03 0.01 0.00
0.05 0.03 0.01 0.00 0.01 0.03 0.00 0.00 0.00 0.00 0.00 0.00 0.00 0.00 0.00 0.00 0.00 0.00 0.00 0.00 0.00 0.01 0.06 0.13 0.17 0.10 0.12 0.09 0.07 0.07 0.05 0.06 0.05 0.04 0.07 0.06 0.04 0.03 0.01 0.00 0.01 0.01 0.00
0.02 0.01 0.00 0.01 0.02 0.03 0.00 0.00 0.00 0.00 0.00 0.00 0.00 0.00 0.00 0.00 0.00 0.01 0.02 0.05 0.03 0.01 0.01 0.02 0.07 0.07 0.04 0.04 0.06 0.08 0.09 0.09 0.07 0.02 0.05 0.16 0.03 0.02 0.02 0.01 0.00 0.00 0.00
0.00 0.00 0.00 0.01 0.02 0.02 0.00 0.00 0.00 0.00 0.00 0.00 0.00 0.00 0.00 0.00 0.00 0.02 0.08 0.05 0.02 0.01 0.01 0.01 0.02 0.03 0.03 0.05 0.10 0.23 0.22 0.26 0.18 0.08 0.08 0.13 0.05 0.04 0.02 0.01 0.02 0.00 0.00
0.00 0.00 0.00 0.00 0.01 0.01 0.00 0.00 0.00 0.00 0.00 0.00 0.00 0.00 0.00 0.00 0.02 0.04 0.07 0.07 0.06 0.03 0.01 0.01 0.01 0.01 0.02 0.04 0.05 0.13 0.19 0.28 0.17 0.12 0.07 0.15 0.07 0.08 0.11 0.07 0.04 0.02 0.01

GFSMA_prec_precacc24_063.txt.gz
Total_Precipitation_Accumulation
0.44 0.30 0.20 0.03 0.01 0.01 0.01 0.00 0.00 0.00 0.00 0.00 0.00 0.00 0.00 0.00 0.00 0.00 0.00 0.00 0.00 0.00 0.00 0.00 0.00 0.00 0.00 0.00 0.00 0.00 0.00 0.00 0.00 0.01 0.01 0.02 0.04 0.07 0.07 0.05 0.06 0.09 0.10
0.21 0.12 0.08 0.06 0.04 0.02 0.00 0.00 0.00 0.00 0.00 0.00 0.00 0.00 0.00 0.00 0.00 0.00 0.00 0.00 0.00 0.00 0.00 0.00 0.00 0.00 0.00 0.00 0.00 0.00 0.00 0.00 0.00 0.00 0.01 0.01 0.02 0.05 0.07 0.08 0.09 0.12 0.16
0.12 0.08 0.04 0.02 0.01 0.00 0.00 0.00 0.00 0.00 0.00 0.00 0.00 0.00 0.00 0.00 0.00 0.00 0.00 0.00 0.00 0.00 0.00 0.00 0.00 0.00 0.00 0.00 0.00 0.00 0.00 0.00 0.00 0.00 0.01 0.01 0.01 0.02 0.04 0.05 0.09 0.12 0.14
0.07 0.02 0.00 0.01 0.00 0.00 0.00 0.00 0.00 0.00 0.00 0.00 0.00 0.00 0.00 0.00 0.00 0.00 0.00 0.00 0.00 0.00 0.00 0.00 0.00 0.00 0.00 0.00 0.00 0.00 0.00 0.00 0.00 0.00 0.01 0.01 0.01 0.01 0.01 0.02 0.04 0.11 0.15
0.00 0.00 0.00 0.00 0.00 0.00 0.00 0.00 0.00 0.00 0.00 0.00 0.00 0.00 0.00 0.00 0.00 0.00 0.00 0.00 0.00 0.00 0.00 0.00 0.00 0.00 0.00 0.00 0.00 0.00 0.00 0.00 0.01 0.00 0.00 0.01 0.01 0.01 0.01 0.01 0.01 0.02 0.07
0.00 0.00 0.00 0.00 0.00 0.00 0.00 0.00 0.00 0.00 0.00 0.00 0.00 0.00 0.00 0.00 0.00 0.00 0.00 0.00 0.00 0.00 0.00 0.00 0.00 0.00 0.00 0.00 0.00 0.00 0.00 0.01 0.01 0.01 0.01 0.01 0.01 0.01 0.01 0.01 0.01 0.01 0.02
0.00 0.00 0.00 0.00 0.00 0.00 0.00 0.00 0.00 0.00 0.00 0.00 0.00 0.00 0.00 0.00 0.00 0.00 0.00 0.00 0.00 0.00 0.00 0.00 0.00 0.00 0.00 0.00 0.00 0.00 0.00 0.00 0.00 0.02 0.03 0.02 0.01 0.01 0.01 0.01 0.01 0.01 0.01
0.00 0.00 0.00 0.00 0.00 0.00 0.00 0.00 0.00 0.00 0.00 0.00 0.00 0.00 0.00 0.00 0.00 0.00 0.00 0.00 0.00 0.00 0.00 0.00 0.00 0.00 0.00 0.00 0.00 0.00 0.00 0.00 0.00 0.01 0.03 0.03 0.03 0.02 0.02 0.01 0.01 0.01 0.01
0.00 0.00 0.00 0.00 0.00 0.00 0.00 0.00 0.00 0.00 0.00 0.00 0.00 0.00 0.00 0.00 0.00 0.00 0.00 0.00 0.00 0.00 0.00 0.00 0.00 0.00 0.00 0.00 0.00 0.00 0.00 0.00 0.00 0.00 0.01 0.02 0.03 0.03 0.03 0.02 0.02 0.02 0.02
0.00 0.00 0.00 0.00 0.00 0.00 0.00 0.00 0.00 0.00 0.00 0.00 0.00 0.00 0.00 0.00 0.01 0.01 0.00 0.00 0.00 0.00 0.00 0.00 0.00 0.00 0.00 0.00 0.00 0.00 0.00 0.00 0.00 0.00 0.00 0.00 0.02 0.05 0.05 0.03 0.02 0.03 0.04
0.00 0.00 0.00 0.00 0.00 0.00 0.00 0.00 0.00 0.00 0.00 0.00 0.00 0.00 0.00 0.00 0.01 0.04 0.03 0.01 0.00 0.00 0.00 0.00 0.00 0.00 0.00 0.00 0.00 0.00 0.00 0.00 0.00 0.00 0.00 0.00 0.00 0.03 0.08 0.10 0.06 0.05 0.05
0.00 0.00 0.00 0.00 0.00 0.00 0.00 0.00 0.00 0.00 0.00 0.01 0.01 0.03 0.05 0.06 0.05 0.08 0.12 0.07 0.02 0.00 0.00 0.00 0.00 0.00 0.00 0.00 0.00 0.00 0.00 0.00 0.00 0.00 0.00 0.00 0.01 0.01 0.03 0.08 0.12 0.13 0.08
0.00 0.00 0.01 0.01 0.00 0.00 0.00 0.00 0.01 0.01 0.02 0.04 0.05 0.06 0.06 0.05 0.06 0.07 0.12 0.09 0.05 0.02 0.00 0.00 0.00 0.00 0.00 0.00 0.00 0.00 0.00 0.00 0.00 0.00 0.00 0.00 0.00 0.01 0.08 0.17 0.16 0.21 0.29
0.01 0.02 0.01 0.00 0.00 0.00 0.01 0.01 0.02 0.03 0.05 0.07 0.08 0.07 0.06 0.05 0.06 0.05 0.09 0.13 0.11 0.01 0.00 0.00 0.00 0.00 0.00 0.00 0.00 0.00 0.00 0.00 0.00 0.00 0.00 0.00 0.01 0.03 0.11 0.17 0.18 0.16 0.14
0.02 0.00 0.00 0.00 0.00 0.00 0.01 0.01 0.03 0.05 0.07 0.07 0.08 0.08 0.05 0.03 0.02 0.01 0.01 0.03 0.05 0.05 0.00 0.00 0.00 0.00 0.00 0.00 0.00 0.00 0.00 0.00 0.00 0.00 0.00 0.00 0.01 0.02 0.07 0.18 0.25 0.22 0.21
0.01 0.00 0.00 0.00 0.00 0.00 0.01 0.03 0.04 0.05 0.06 0.06 0.04 0.02 0.01 0.01 0.00 0.00 0.00 0.00 0.01 0.07 0.04 0.00 0.00 0.00 0.00 0.00 0.00 0.00 0.00 0.00 0.00 0.00 0.00 0.00 0.01 0.03 0.04 0.09 0.15 0.24 0.27
0.00 0.00 0.00 0.00 0.00 0.00 0.02 0.04 0.04 0.03 0.02 0.01 0.01 0.01 0.00 0.00 0.00 0.00 0.00 0.00 0.01 0.01 0.01 0.00 0.00 0.00 0.00 0.00 0.00 0.00 0.00 0.00 0.00 0.00 0.00 0.01 0.01 0.02 0.06 0.10 0.11 0.13 0.24
0.00 0.00 0.00 0.00 0.00 0.01 0.03 0.02 0.01 0.00 0.00 0.00 0.00 0.00 0.00 0.00 0.00 0.00 0.00 0.00 0.00 0.00 0.00 0.00 0.00 0.00 0.00 0.00 0.00 0.00 0.00 0.00 0.00 0.00 0.00 0.00 0.00 0.00 0.03 0.09 0.12 0.15 0.19
0.00 0.00 0.00 0.00 0.01 0.01 0.01 0.00 0.00 0.00 0.00 0.00 0.00 0.00 0.00 0.00 0.00 0.00 0.00 0.00 0.00 0.00 0.01 0.02 0.01 0.00 0.00 0.00 0.00 0.00 0.00 0.00 0.00 0.00 0.00 0.00 0.01 0.01 0.01 0.02 0.03 0.05 0.07
0.00 0.00 0.00 0.01 0.01 0.01 0.02 0.01 0.00 0.00 0.00 0.00 0.01 0.00 0.00 0.00 0.00 0.00 0.00 0.00 0.01 0.01 0.01 0.02 0.01 0.00 0.00 0.00 0.00 0.01 0.01 0.00 0.00 0.00 0.00 0.00 0.00 0.00 0.01 0.01 0.00 0.01 0.01
0.00 0.00 0.00 0.01 0.03 0.04 0.02 0.00 0.00 0.00 0.01 0.01 0.00 0.00 0.00 0.00 0.00 0.00 0.01 0.00 0.01 0.01 0.01 0.01 0.01 0.01 0.01 0.01 0.02 0.03 0.04 0.02 0.01 0.01 0.01 0.00 0.00 0.01 0.01 0.01 0.02 0.01 0.02
0.00 0.00 0.02 0.04 0.01 0.00 0.00 0.00 0.00 0.00 0.00 0.00 0.00 0.00 0.00 0.00 0.00 0.00 0.00 0.00 0.00 0.01 0.03 0.05 0.05 0.05 0.03 0.04 0.07 0.09 0.07 0.05 0.05 0.03 0.05 0.03 0.03 0.02 0.01 0.01 0.03 0.01 0.00
0.00 0.00 0.01 0.00 0.01 0.03 0.00 0.00 0.00 0.00 0.00 0.00 0.00 0.00 0.00 0.00 0.00 0.00 0.00 0.00 0.00 0.01 0.05 0.12 0.16 0.10 0.12 0.09 0.07 0.07 0.05 0.07 0.06 0.04 0.07 0.07 0.04 0.03 0.01 0.00 0.01 0.01 0.00
0.00 0.00 0.00 0.01 0.02 0.03 0.00 0.00 0.00 0.00 0.00 0.00 0.00 0.00 0.00 0.00 0.00 0.00 0.02 0.04 0.02 0.01 0.01 0.02 0.07 0.07 0.04 0.04 0.05 0.08 0.09 0.10 0.07 0.02 0.05 0.16 0.03 0.02 0.02 0.01 0.00 0.00 0.00
0.00 0.00 0.00 0.01 0.02 0.02 0.00 0.00 0.00 0.00 0.00 0.00 0.00 0.00 0.00 0.00 0.00 0.02 0.07 0.05 0.02 0.01 0.01 0.01 0.02 0.03 0.03 0.03 0.07 0.20 0.21 0.24 0.17 0.08 0.08 0.13 0.05 0.04 0.02 0.01 0.02 0.00 0.00
0.00 0.00 0.00 0.00 0.01 0.01 0.00 0.00 0.00 0.00 0.00 0.00 0.00 0.00 0.00 0.00 0.01 0.03 0.04 0.04 0.04 0.03 0.01 0.01 0.01 0.01 0.02 0.04 0.05 0.13 0.19 0.28 0.17 0.12 0.07 0.15 0.07 0.10 0.15 0.07 0.04 0.02 0.01

GFSMA_prec_precacc24_069.txt.gz
Total_Precipitation_Accumulation
0.44 0.30 0.20 0.04 0.02 0.01 0.01 0.00 0.00 0.00 0.00 0.00 0.00 0.00 0.00 0.00 0.00 0.00 0.00 0.00 0.00 0.00 0.00 0.00 0.00 0.00 0.00 0.00 0.00 0.00 0.00 0.00 0.00 0.01 0.01 0.01 0.01 0.02 0.02 0.01 0.01 0.01 0.03
0.20 0.13 0.09 0.06 0.04 0.02 0.00 0.00 0.00 0.00 0.00 0.00 0.00 0.00 0.00 0.00 0.00 0.00 0.00 0.00 0.00 0.00 0.00 0.00 0.00 0.00 0.00 0.00 0.00 0.00 0.00 0.00 0.00 0.00 0.01 0.01 0.01 0.01 0.01 0.02 0.01 0.01 0.02
0.12 0.08 0.04 0.02 0.01 0.00 0.00 0.00 0.00 0.00 0.00 0.00 0.00 0.00 0.00 0.00 0.00 0.00 0.00 0.00 0.00 0.00 0.00 0.00 0.00 0.00 0.00 0.00 0.00 0.00 0.00 0.00 0.00 0.00 0.01 0.01 0.01 0.02 0.01 0.00 0.01 0.01 0.01
0.04 0.02 0.00 0.01 0.00 0.00 0.00 0.00 0.00 0.00 0.00 0.00 0.00 0.00 0.00 0.00 0.00 0.00 0.00 0.00 0.00 0.00 0.00 0.00 0.00 0.00 0.00 0.00 0.00 0.00 0.00 0.00 0.00 0.00 0.01 0.01 0.01 0.01 0.01 0.01 0.00 0.00 0.01
0.00 0.00 0.00 0.00 0.00 0.00 0.00 0.00 0.00 0.00 0.00 0.00 0.00 0.00 0.00 0.00 0.00 0.00 0.00 0.00 0.00 0.00 0.00 0.00 0.00 0.00 0.00 0.00 0.00 0.00 0.00 0.00 0.00 0.01 0.00 0.01 0.01 0.01 0.01 0.01 0.01 0.00 0.01
0.00 0.00 0.00 0.00 0.00 0.00 0.00 0.00 0.00 0.00 0.00 0.00 0.00 0.00 0.00 0.00 0.00 0.00 0.00 0.00 0.00 0.00 0.00 0.00 0.00 0.00 0.00 0.00 0.00 0.00 0.00 0.01 0.02 0.02 0.03 0.02 0.01 0.01 0.01 0.01 0.01 0.01 0.02
0.00 0.00 0.00 0.00 0.00 0.00 0.00 0.00 0.00 0.00 0.00 0.00 0.00 0.00 0.00 0.00 0.00 0.00 0.00 0.00 0.00 0.00 0.00 0.00 0.00 0.00 0.00 0.00 0.00 0.00 0.00 0.00 0.00 0.00 0.03 0.05 0.04 0.02 0.01 0.00 0.01 0.01 0.01
0.00 0.00 0.00 0.00 0.00 0.00 0.00 0.00 0.00 0.00 0.00 0.00 0.00 0.00 0.00 0.00 0.00 0.00 0.00 0.00 0.00 0.00 0.00 0.00 0.00 0.00 0.00 0.00 0.00 0.00 0.00 0.00 0.00 0.00 0.00 0.00 0.00 0.00 0.00 0.00 0.00 0.01 0.01
0.00 0.00 0.00 0.00 0.00 0.00 0.00 0.00 0.00 0.00 0.00 0.00 0.00 0.00 0.00 0.00 0.00 0.00 0.00 0.00 0.00 0.00 0.00 0.00 0.00 0.00 0.00 0.00 0.00 0.00 0.00 0.00 0.00 0.00 0.00 0.00 0.00 0.00 0.01 0.01 0.00 0.01 0.02
0.00 0.00 0.00 0.00 0.00 0.00 0.00 0.00 0.00 0.00 0.00 0.00 0.00 0.00 0.00 0.00 0.00 0.01 0.00 0.00 0.00 0.00 0.00 0.00 0.00 0.00 0.00 0.00 0.00 0.00 0.00 0.00 0.00 0.00 0.00 0.00 0.00 0.00 0.00 0.00 0.01 0.02 0.04
0.00 0.00 0.00 0.00 0.00 0.00 0.00 0.00 0.00 0.00 0.00 0.00 0.00 0.00 0.00 0.00 0.01 0.03 0.03 0.01 0.00 0.00 0.00 0.00 0.00 0.00 0.00 0.00 0.00 0.00 0.00 0.00 0.00 0.00 0.00 0.00 0.00 0.00 0.00 0.01 0.01 0.02 0.04
0.00 0.00 0.00 0.00 0.00 0.00 0.00 0.00 0.00 0.00 0.00 0.01 0.01 0.03 0.05 0.05 0.05 0.07 0.10 0.06 0.02 0.00 0.00 0.00 0.00 0.00 0.00 0.00 0.00 0.00 0.00 0.00 0.00 0.00 0.00 0.00 0.00 0.00 0.00 0.00 0.00 0.01 0.01
0.00 0.00 0.01 0.01 0.00 0.01 0.01 0.00 0.01 0.01 0.02 0.04 0.05 0.06 0.06 0.05 0.04 0.05 0.08 0.06 0.03 0.01 0.00 0.00 0.00 0.00 0.00 0.00 0.00 0.00 0.00 0.00 0.00 0.00 0.00 0.00 0.00 0.00 0.00 0.00 0.00 0.01 0.01
0.02 0.03 0.03 0.03 0.05 0.04 0.01 0.01 0.02 0.03 0.05 0.07 0.08 0.07 0.06 0.05 0.04 0.03 0.04 0.05 0.05 0.01 0.00 0.00 0.00 0.00 0.00 0.00 0.00 0.00 0.00 0.00 0.00 0.00 0.00 0.00 0.00 0.00 0.00 0.00 0.00 0.01 0.00
0.02 0.02 0.07 0.09 0.07 0.01 0.01 0.01 0.03 0.05 0.06 0.07 0.08 0.08 0.05 0.02 0.01 0.00 0.01 0.03 0.05 0.03 0.00 0.00 0.00 0.00 0.00 0.00 0.00 0.00 0.00 0.00 0.00 0.00 0.00 0.00 0.00 0.00 0.00 0.00 0.00 0.00 0.00
0.05 0.09 0.10 0.08 0.03 0.00 0.01 0.02 0.03 0.04 0.05 0.06 0.04 0.02 0.01 0.01 0.00 0.00 0.00 0.00 0.01 0.05 0.05 0.00 0.00 0.00 0.00 0.00 0.00 0.00 0.00 0.00 0.00 0.00 0.00 0.00 0.00 0.00 0.00 0.00 0.01 0.01 0.03
0.08 0.10 0.08 0.01 0.00 0.00 0.02 0.04 0.04 0.03 0.02 0.01 0.01 0.01 0.00 0.00 0.00 0.00 0.00 0.00 0.01 0.01 0.01 0.00 0.00 0.00 0.00 0.00 0.00 0.00 0.00 0.00 0.00 0.00 0.00 0.01 0.01 0.01 0.01 0.01 0.01 0.01 0.02
0.08 0.01 0.00 0.00 0.00 0.01 0.03 0.02 0.01 0.00 0.00 0.00 0.00 0.00 0.00 0.00 0.00 0.00 0.00 0.00 0.00 0.00 0.01 0.01 0.00 0.00 0.00 0.00 0.00 0.00 0.00 0.00 0.00 0.00 0.00 0.00 0.00 0.00 0.00 0.00 0.00 0.00 0.00
0.00 0.00 0.00 0.00 0.00 0.00 0.00 0.00 0.00 0.00 0.00 0.00 0.00 0.00 0.00 0.00 0.00 0.00 0.00 0.00 0.00 0.00 0.00 0.00 0.00 0.00 0.00 0.00 0.00 0.00 0.00 0.00 0.00 0.00 0.00 0.00 0.01 0.01 0.01 0.01 0.01 0.00 0.00
0.00 0.00 0.00 0.00 0.00 0.00 0.00 0.01 0.00 0.00 0.00 0.00 0.01 0.00 0.00 0.00 0.00 0.00 0.00 0.00 0.00 0.00 0.00 0.00 0.00 0.00 0.00 0.00 0.00 0.00 0.01 0.00 0.00 0.00 0.00 0.00 0.00 0.00 0.01 0.00 0.00 0.00 0.01
0.00 0.00 0.00 0.00 0.00 0.00 0.00 0.00 0.00 0.00 0.01 0.01 0.00 0.00 0.00 0.00 0.00 0.00 0.00 0.00 0.00 0.00 0.00 0.00 0.00 0.01 0.01 0.01 0.01 0.02 0.04 0.02 0.01 0.01 0.01 0.00 0.00 0.01 0.01 0.01 0.02 0.01 0.02
0.00 0.00 0.00 0.00 0.00 0.00 0.00 0.00 0.00 0.00 0.00 0.00 0.00 0.00 0.00 0.00 0.00 0.00 0.00 0.00 0.00 0.00 0.01 0.02 0.03 0.03 0.02 0.03 0.07 0.08 0.06 0.04 0.04 0.03 0.05 0.03 0.03 0.02 0.01 0.01 0.03 0.01 0.00
0.00 0.00 0.00 0.00 0.01 0.03 0.00 0.00 0.00 0.00 0.00 0.00 0.00 0.00 0.00 0.00 0.00 0.00 0.00 0.00 0.00 0.01 0.03 0.06 0.08 0.07 0.10 0.08 0.06 0.05 0.04 0.06 0.06 0.03 0.07 0.06 0.04 0.03 0.01 0.00 0.01 0.01 0.00
0.00 0.00 0.00 0.01 0.02 0.03 0.00 0.00 0.00 0.00 0.00 0.00 0.00 0.00 0.00 0.00 0.00 0.00 0.01 0.02 0.01 0.01 0.01 0.01 0.04 0.05 0.03 0.03 0.04 0.06 0.07 0.08 0.05 0.02 0.05 0.15 0.02 0.02 0.02 0.01 0.00 0.00 0.00
0.00 0.00 0.00 0.01 0.02 0.02 0.00 0.00 0.00 0.00 0.00 0.00 0.00 0.00 0.00 0.00 0.00 0.00 0.01 0.02 0.01 0.01 0.01 0.00 0.00 0.00 0.00 0.01 0.03 0.12 0.13 0.17 0.14 0.07 0.08 0.12 0.05 0.04 0.02 0.01 0.02 0.00 0.00
0.00 0.00 0.00 0.00 0.01 0.01 0.00 0.00 0.00 0.00 0.00 0.00 0.00 0.00 0.00 0.00 0.00 0.00 0.01 0.02 0.03 0.01 0.01 0.00 0.00 0.01 0.01 0.02 0.04 0.11 0.17 0.25 0.15 0.10 0.07 0.14 0.06 0.10 0.16 0.07 0.04 0.02 0.01

GFSMA_prec_precacc24_072.txt.gz
Total_Precipitation_Accumulation
0.40 0.29 0.20 0.04 0.02 0.01 0.01 0.00 0.00 0.00 0.00 0.00 0.00 0.00 0.00 0.00 0.00 0.00 0.00 0.00 0.00 0.00 0.00 0.00 0.00 0.00 0.00 0.00 0.00 0.00 0.00 0.00 0.00 0.01 0.01 0.01 0.01 0.02 0.02 0.01 0.01 0.01 0.02
0.14 0.11 0.10 0.07 0.05 0.02 0.00 0.00 0.00 0.00 0.00 0.00 0.00 0.00 0.00 0.00 0.00 0.00 0.00 0.00 0.00 0.00 0.00 0.00 0.00 0.00 0.00 0.00 0.00 0.00 0.00 0.00 0.00 0.00 0.01 0.01 0.01 0.01 0.01 0.02 0.01 0.01 0.01
0.10 0.05 0.03 0.02 0.01 0.00 0.00 0.00 0.00 0.00 0.00 0.00 0.00 0.00 0.00 0.00 0.00 0.00 0.00 0.00 0.00 0.00 0.00 0.00 0.00 0.00 0.00 0.00 0.00 0.00 0.00 0.00 0.00 0.00 0.01 0.01 0.01 0.02 0.01 0.00 0.01 0.01 0.01
0.03 0.01 0.00 0.00 0.00 0.00 0.00 0.00 0.00 0.00 0.00 0.00 0.00 0.00 0.00 0.00 0.00 0.00 0.00 0.00 0.00 0.00 0.00 0.00 0.00 0.00 0.00 0.00 0.00 0.00 0.00 0.00 0.00 0.00 0.00 0.00 0.01 0.01 0.01 0.01 0.00 0.00 0.01
0.00 0.00 0.00 0.00 0.00 0.00 0.00 0.00 0.00 0.00 0.00 0.00 0.00 0.00 0.00 0.00 0.00 0.00 0.00 0.00 0.00 0.00 0.00 0.00 0.00 0.00 0.00 0.00 0.00 0.00 0.00 0.00 0.00 0.00 0.00 0.00 0.00 0.00 0.01 0.00 0.00 0.00 0.01
0.00 0.00 0.00 0.00 0.00 0.00 0.00 0.00 0.00 0.00 0.00 0.00 0.00 0.00 0.00 0.00 0.00 0.00 0.00 0.00 0.00 0.00 0.00 0.00 0.00 0.00 0.00 0.00 0.00 0.00 0.00 0.01 0.02 0.02 0.04 0.05 0.04 0.03 0.01 0.00 0.01 0.01 0.02
0.00 0.00 0.00 0.00 0.00 0.00 0.00 0.00 0.00 0.00 0.00 0.00 0.00 0.00 0.00 0.00 0.00 0.00 0.00 0.00 0.00 0.00 0.00 0.00 0.00 0.00 0.00 0.00 0.00 0.00 0.00 0.00 0.00 0.00 0.03 0.05 0.05 0.04 0.03 0.01 0.00 0.01 0.01
0.00 0.00 0.00 0.00 0.00 0.00 0.00 0.00 0.00 0.00 0.00 0.00 0.00 0.00 0.00 0.00 0.00 0.00 0.00 0.00 0.00 0.00 0.00 0.00 0.00 0.00 0.00 0.00 0.00 0.00 0.00 0.00 0.00 0.00 0.00 0.00 0.00 0.00 0.00 0.01 0.02 0.01 0.01
0.00 0.00 0.00 0.00 0.00 0.00 0.00 0.00 0.00 0.00 0.00 0.00 0.00 0.00 0.00 0.00 0.00 0.00 0.00 0.00 0.00 0.00 0.00 0.00 0.00 0.00 0.00 0.00 0.00 0.00 0.00 0.00 0.00 0.00 0.00 0.00 0.00 0.00 0.01 0.02 0.02 0.02 0.03
0.00 0.00 0.00 0.00 0.00 0.00 0.00 0.00 0.00 0.00 0.00 0.00 0.00 0.00 0.00 0.00 0.00 0.00 0.00 0.00 0.00 0.00 0.00 0.00 0.00 0.00 0.00 0.00 0.00 0.00 0.00 0.00 0.00 0.00 0.00 0.00 0.00 0.00 0.00 0.01 0.02 0.02 0.02
0.00 0.00 0.00 0.00 0.00 0.00 0.00 0.00 0.00 0.00 0.00 0.00 0.00 0.00 0.00 0.00 0.01 0.03 0.02 0.01 0.00 0.00 0.00 0.00 0.00 0.00 0.00 0.00 0.00 0.00 0.00 0.00 0.00 0.00 0.00 0.00 0.00 0.00 0.00 0.01 0.01 0.01 0.02
0.00 0.00 0.00 0.00 0.00 0.00 0.00 0.00 0.00 0.00 0.00 0.00 0.00 0.02 0.04 0.04 0.04 0.06 0.06 0.04 0.01 0.00 0.00 0.00 0.00 0.00 0.00 0.00 0.00 0.00 0.00 0.00 0.00 0.00 0.00 0.00 0.00 0.00 0.00 0.00 0.00 0.00 0.00
0.00 0.00 0.01 0.01 0.00 0.01 0.02 0.02 0.01 0.01 0.01 0.03 0.03 0.04 0.03 0.03 0.03 0.03 0.05 0.04 0.01 0.00 0.00 0.00 0.00 0.00 0.00 0.00 0.00 0.00 0.00 0.00 0.00 0.00 0.00 0.00 0.00 0.00 0.00 0.00 0.00 0.00 0.00
0.02 0.03 0.03 0.03 0.05 0.06 0.04 0.02 0.01 0.02 0.03 0.04 0.05 0.05 0.05 0.03 0.03 0.02 0.02 0.03 0.03 0.00 0.00 0.00 0.00 0.00 0.00 0.00 0.00 0.00 0.00 0.00 0.00 0.00 0.00 0.00 0.00 0.00 0.00 0.00 0.00 0.00 0.00
0.02 0.02 0.07 0.09 0.08 0.06 0.02 0.00 0.01 0.02 0.03 0.03 0.05 0.05 0.04 0.02 0.01 0.00 0.00 0.01 0.03 0.03 0.00 0.00 0.00 0.00 0.00 0.00 0.00 0.00 0.00 0.00 0.00 0.00 0.00 0.00 0.00 0.00 0.00 0.00 0.00 0.00 0.00
0.05 0.09 0.10 0.12 0.10 0.03 0.00 0.00 0.01 0.02 0.04 0.04 0.03 0.02 0.01 0.01 0.00 0.00 0.00 0.00 0.00 0.05 0.05 0.00 0.00 0.00 0.00 0.00 0.00 0.00 0.00 0.00 0.00 0.00 0.00 0.00 0.00 0.00 0.00 0.00 0.01 0.01 0.01
0.08 0.13 0.18 0.14 0.03 0.00 0.00 0.00 0.01 0.02 0.01 0.01 0.01 0.01 0.00 0.00 0.00 0.00 0.00 0.00 0.01 0.02 0.01 0.00 0.00 0.00 0.00 0.00 0.00 0.00 0.00 0.00 0.00 0.00 0.00 0.01 0.01 0.01 0.01 0.01 0.01 0.01 0.01
0.12 0.07 0.04 0.00 0.00 0.00 0.00 0.00 0.00 0.00 0.00 0.00 0.00 0.00 0.00 0.00 0.00 0.00 0.00 0.00 0.00 0.00 0.01 0.01 0.00 0.00 0.00 0.00 0.00 0.00 0.00 0.00 0.00 0.00 0.00 0.00 0.00 0.00 0.00 0.00 0.00 0.00 0.00
0.07 0.02 0.00 0.00 0.00 0.00 0.00 0.00 0.00 0.00 0.00 0.00 0.00 0.00 0.00 0.00 0.00 0.00 0.00 0.00 0.00 0.00 0.00 0.00 0.00 0.00 0.00 0.00 0.00 0.00 0.00 0.00 0.00 0.00 0.00 0.00 0.01 0.01 0.01 0.01 0.00 0.00 0.00
0.04 0.01 0.00 0.00 0.00 0.00 0.00 0.00 0.00 0.00 0.00 0.00 0.01 0.00 0.00 0.00 0.00 0.00 0.00 0.00 0.00 0.00 0.00 0.00 0.01 0.00 0.00 0.00 0.00 0.00 0.00 0.00 0.00 0.00 0.00 0.00 0.00 0.00 0.01 0.00 0.00 0.00 0.00
0.02 0.01 0.00 0.00 0.00 0.00 0.00 0.00 0.00 0.00 0.01 0.01 0.00 0.00 0.00 0.00 0.00 0.00 0.00 0.00 0.00 0.00 0.00 0.00 0.01 0.00 0.00 0.00 0.01 0.02 0.03 0.02 0.01 0.00 0.00 0.00 0.00 0.01 0.01 0.01 0.02 0.01 0.01
0.00 0.00 0.00 0.00 0.00 0.00 0.00 0.00 0.00 0.00 0.00 0.00 0.00 0.00 0.00 0.00 0.00 0.00 0.00 0.00 0.00 0.00 0.01 0.02 0.02 0.02 0.02 0.03 0.06 0.07 0.05 0.03 0.03 0.02 0.03 0.02 0.02 0.02 0.01 0.01 0.03 0.01 0.00
0.00 0.00 0.00 0.00 0.01 0.03 0.00 0.00 0.00 0.00 0.00 0.00 0.00 0.00 0.00 0.00 0.00 0.00 0.00 0.00 0.00 0.00 0.03 0.04 0.05 0.05 0.08 0.07 0.05 0.04 0.02 0.04 0.04 0.02 0.05 0.04 0.02 0.02 0.01 0.00 0.01 0.01 0.00
0.00 0.00 0.00 0.00 0.02 0.03 0.00 0.00 0.00 0.00 0.00 0.00 0.00 0.00 0.00 0.00 0.00 0.00 0.00 0.00 0.00 0.00 0.00 0.01 0.02 0.02 0.01 0.01 0.01 0.02 0.05 0.05 0.03 0.01 0.04 0.12 0.02 0.02 0.01 0.01 0.00 0.00 0.00
0.00 0.00 0.00 0.01 0.02 0.02 0.00 0.00 0.00 0.00 0.00 0.00 0.00 0.00 0.00 0.00 0.00 0.00 0.00 0.00 0.00 0.00 0.00 0.00 0.00 0.00 0.00 0.00 0.01 0.07 0.08 0.12 0.10 0.05 0.05 0.08 0.03 0.03 0.01 0.01 0.01 0.00 0.00
0.00 0.00 0.00 0.00 0.01 0.01 0.00 0.00 0.00 0.00 0.00 0.00 0.00 0.00 0.00 0.00 0.00 0.00 0.00 0.01 0.02 0.01 0.00 0.00 0.00 0.00 0.00 0.01 0.02 0.07 0.14 0.21 0.13 0.08 0.04 0.10 0.05 0.09 0.15 0.05 0.03 0.01 0.01

GFSMA_prec_precacc24_075.txt.gz
Total_Precipitation_Accumulation
0.20 0.17 0.12 0.04 0.02 0.01 0.01 0.00 0.00 0.00 0.00 0.00 0.00 0.00 0.00 0.00 0.00 0.00 0.00 0.00 0.00 0.00 0.00 0.00 0.00 0.00 0.00 0.00 0.00 0.00 0.00 0.00 0.00 0.01 0.01 0.01 0.01 0.02 0.02 0.01 0.01 0.01 0.01
0.19 0.14 0.10 0.07 0.05 0.02 0.00 0.00 0.00 0.00 0.00 0.00 0.00 0.00 0.00 0.00 0.00 0.00 0.00 0.00 0.00 0.00 0.00 0.00 0.00 0.00 0.00 0.00 0.00 0.00 0.00 0.00 0.00 0.00 0.01 0.01 0.00 0.01 0.01 0.02 0.01 0.01 0.01
0.13 0.07 0.03 0.01 0.00 0.00 0.00 0.00 0.00 0.00 0.00 0.00 0.00 0.00 0.00 0.00 0.00 0.00 0.00 0.00 0.00 0.00 0.00 0.00 0.00 0.00 0.00 0.00 0.00 0.00 0.00 0.00 0.00 0.00 0.01 0.01 0.00 0.01 0.01 0.00 0.01 0.01 0.01
0.02 0.01 0.00 0.00 0.00 0.00 0.00 0.00 0.00 0.00 0.00 0.00 0.00 0.00 0.00 0.00 0.00 0.00 0.00 0.00 0.00 0.00 0.00 0.00 0.00 0.00 0.00 0.00 0.00 0.00 0.00 0.00 0.00 0.00 0.00 0.00 0.00 0.00 0.01 0.00 0.00 0.00 0.01
0.00 0.00 0.00 0.00 0.00 0.00 0.00 0.00 0.00 0.00 0.00 0.00 0.00 0.00 0.00 0.00 0.00 0.00 0.00 0.00 0.00 0.00 0.00 0.00 0.00 0.00 0.00 0.00 0.00 0.00 0.00 0.00 0.00 0.00 0.00 0.01 0.02 0.02 0.01 0.00 0.00 0.00 0.00
0.00 0.00 0.00 0.00 0.00 0.00 0.00 0.00 0.00 0.00 0.00 0.00 0.00 0.00 0.00 0.00 0.00 0.00 0.00 0.00 0.00 0.00 0.00 0.00 0.00 0.00 0.00 0.00 0.00 0.00 0.00 0.01 0.02 0.02 0.04 0.06 0.06 0.05 0.04 0.03 0.02 0.00 0.00
0.00 0.00 0.00 0.00 0.00 0.00 0.00 0.00 0.00 0.00 0.00 0.00 0.00 0.00 0.00 0.00 0.00 0.00 0.00 0.00 0.00 0.00 0.00 0.00 0.00 0.00 0.00 0.00 0.00 0.00 0.00 0.00 0.00 0.00 0.03 0.05 0.05 0.04 0.02 0.02 0.01 0.00 0.00
0.00 0.00 0.00 0.00 0.00 0.00 0.00 0.00 0.00 0.00 0.00 0.00 0.00 0.00 0.00 0.00 0.00 0.00 0.00 0.00 0.00 0.00 0.00 0.00 0.00 0.00 0.00 0.00 0.00 0.00 0.00 0.00 0.00 0.00 0.00 0.00 0.00 0.00 0.00 0.01 0.03 0.03 0.02
0.00 0.00 0.00 0.00 0.00 0.00 0.00 0.00 0.00 0.00 0.00 0.00 0.00 0.00 0.00 0.00 0.00 0.00 0.00 0.00 0.00 0.00 0.00 0.00 0.00 0.00 0.00 0.00 0.00 0.00 0.00 0.00 0.00 0.00 0.00 0.00 0.00 0.00 0.01 0.02 0.02 0.02 0.04
0.00 0.00 0.00 0.00 0.00 0.00 0.00 0.00 0.00 0.00 0.00 0.00 0.00 0.00 0.00 0.00 0.00 0.00 0.00 0.00 0.00 0.00 0.00 0.00 0.00 0.00 0.00 0.00 0.00 0.00 0.00 0.00 0.00 0.00 0.00 0.00 0.00 0.00 0.00 0.01 0.02 0.02 0.03
0.01 0.00 0.00 0.00 0.00 0.00 0.00 0.00 0.00 0.00 0.00 0.00 0.00 0.00 0.00 0.00 0.00 0.01 0.01 0.00 0.00 0.00 0.00 0.00 0.00 0.00 0.00 0.00 0.00 0.00 0.00 0.00 0.00 0.00 0.00 0.00 0.00 0.00 0.00 0.01 0.01 0.01 0.02
0.00 0.00 0.00 0.00 0.00 0.00 0.00 0.00 0.00 0.00 0.00 0.00 0.00 0.00 0.01 0.01 0.01 0.01 0.01 0.00 0.00 0.00 0.00 0.00 0.00 0.00 0.00 0.00 0.00 0.00 0.00 0.00 0.00 0.00 0.00 0.00 0.00 0.00 0.00 0.00 0.00 0.00 0.01
0.01 0.00 0.01 0.01 0.00 0.01 0.02 0.02 0.01 0.00 0.01 0.01 0.01 0.01 0.01 0.01 0.01 0.01 0.02 0.02 0.01 0.00 0.00 0.00 0.00 0.00 0.00 0.00 0.00 0.00 0.00 0.00 0.00 0.00 0.00 0.00 0.00 0.00 0.00 0.00 0.00 0.00 0.00
0.02 0.03 0.03 0.03 0.05 0.06 0.03 0.01 0.00 0.00 0.01 0.02 0.02 0.02 0.02 0.01 0.01 0.01 0.01 0.02 0.03 0.00 0.00 0.00 0.00 0.00 0.00 0.00 0.00 0.00 0.00 0.00 0.00 0.00 0.00 0.00 0.00 0.00 0.00 0.00 0.00 0.00 0.00
0.02 0.02 0.07 0.09 0.08 0.06 0.01 0.00 0.01 0.00 0.02 0.02 0.01 0.02 0.02 0.01 0.01 0.00 0.00 0.01 0.03 0.02 0.00 0.00 0.00 0.00 0.00 0.00 0.00 0.00 0.00 0.00 0.00 0.00 0.00 0.00 0.00 0.00 0.00 0.00 0.00 0.00 0.00
0.05 0.09 0.10 0.12 0.12 0.10 0.09 0.06 0.01 0.00 0.01 0.01 0.01 0.01 0.01 0.01 0.00 0.00 0.00 0.00 0.00 0.05 0.05 0.00 0.00 0.00 0.00 0.00 0.00 0.00 0.00 0.00 0.00 0.00 0.00 0.00 0.00 0.00 0.00 0.00 0.01 0.01 0.01
0.09 0.13 0.19 0.18 0.15 0.11 0.06 0.01 0.00 0.00 0.00 0.00 0.00 0.00 0.00 0.00 0.00 0.00 0.00 0.00 0.01 0.02 0.01 0.00 0.00 0.00 0.00 0.00 0.00 0.00 0.00 0.00 0.00 0.00 0.00 0.00 0.00 0.01 0.01 0.01 0.01 0.01 0.01
0.21 0.20 0.15 0.10 0.06 0.02 0.00 0.00 0.00 0.00 0.00 0.00 0.00 0.00 0.00 0.00 0.00 0.00 0.00 0.00 0.00 0.00 0.01 0.01 0.00 0.00 0.00 0.00 0.00 0.00 0.00 0.00 0.00 0.00 0.00 0.00 0.00 0.00 0.00 0.00 0.00 0.00 0.00
0.27 0.14 0.08 0.08 0.04 0.01 0.00 0.00 0.00 0.00 0.00 0.00 0.00 0.00 0.00 0.00 0.00 0.00 0.00 0.00 0.00 0.00 0.00 0.00 0.00 0.00 0.00 0.00 0.00 0.00 0.00 0.00 0.00 0.00 0.00 0.00 0.00 0.01 0.01 0.01 0.00 0.00 0.00
0.18 0.17 0.17 0.11 0.03 0.00 0.00 0.00 0.00 0.00 0.00 0.00 0.00 0.00 0.00 0.00 0.00 0.00 0.00 0.00 0.00 0.00 0.00 0.00 0.00 0.00 0.00 0.00 0.01 0.02 0.01 0.00 0.00 0.00 0.00 0.00 0.00 0.00 0.01 0.00 0.00 0.00 0.00
0.07 0.04 0.01 0.00 0.00 0.00 0.00 0.00 0.00 0.00 0.00 0.00 0.00 0.00 0.00 0.00 0.00 0.00 0.00 0.00 0.00 0.00 0.00 0.00 0.01 0.01 0.01 0.01 0.02 0.03 0.04 0.01 0.00 0.00 0.00 0.00 0.00 0.00 0.00 0.01 0.02 0.01 0.01
0.00 0.00 0.00 0.00 0.00 0.00 0.00 0.00 0.00 0.00 0.00 0.00 0.00 0.00 0.00 0.00 0.00 0.00 0.00 0.00 0.00 0.00 0.01 0.02 0.03 0.04 0.03 0.04 0.06 0.06 0.03 0.01 0.01 0.00 0.01 0.00 0.01 0.00 0.00 0.01 0.02 0.01 0.00
0.00 0.00 0.00 0.00 0.00 0.01 0.00 0.00 0.00 0.00 0.00 0.00 0.00 0.00 0.00 0.00 0.00 0.00 0.00 0.00 0.00 0.00 0.00 0.02 0.04 0.05 0.08 0.05 0.03 0.01 0.00 0.02 0.02 0.00 0.02 0.01 0.00 0.00 0.00 0.00 0.00 0.01 0.00
0.00 0.00 0.00 0.00 0.00 0.01 0.00 0.00 0.00 0.00 0.00 0.00 0.00 0.00 0.00 0.00 0.00 0.00 0.00 0.00 0.01 0.02 0.01 0.01 0.01 0.01 0.01 0.00 0.01 0.02 0.03 0.02 0.01 0.00 0.02 0.11 0.00 0.00 0.00 0.00 0.00 0.00 0.00
0.00 0.00 0.00 0.00 0.01 0.01 0.00 0.00 0.00 0.00 0.00 0.00 0.00 0.00 0.00 0.00 0.00 0.00 0.00 0.01 0.01 0.00 0.00 0.00 0.00 0.00 0.00 0.00 0.01 0.03 0.04 0.07 0.07 0.03 0.02 0.05 0.01 0.00 0.00 0.00 0.00 0.00 0.00
0.00 0.00 0.00 0.00 0.00 0.00 0.00 0.00 0.00 0.00 0.00 0.00 0.00 0.00 0.00 0.00 0.00 0.00 0.01 0.02 0.04 0.01 0.01 0.01 0.01 0.00 0.00 0.00 0.01 0.03 0.06 0.12 0.08 0.04 0.01 0.06 0.02 0.06 0.13 0.03 0.02 0.00 0.00

GFSMA_prec_precacc24_078.txt.gz
Total_Precipitation_Accumulation
0.05 0.06 0.02 0.01 0.01 0.01 0.00 0.00 0.00 0.00 0.00 0.00 0.00 0.00 0.00 0.00 0.00 0.00 0.00 0.00 0.00 0.00 0.00 0.00 0.00 0.00 0.00 0.00 0.00 0.00 0.00 0.00 0.00 0.01 0.01 0.00 0.00 0.02 0.02 0.01 0.01 0.01 0.01
0.16 0.12 0.05 0.02 0.02 0.01 0.00 0.00 0.00 0.00 0.00 0.00 0.00 0.00 0.00 0.00 0.00 0.00 0.00 0.00 0.00 0.00 0.00 0.00 0.00 0.00 0.00 0.00 0.00 0.00 0.00 0.00 0.00 0.00 0.01 0.00 0.00 0.00 0.01 0.01 0.01 0.01 0.01
0.16 0.07 0.02 0.00 0.00 0.00 0.00 0.00 0.00 0.00 0.00 0.00 0.00 0.00 0.00 0.00 0.00 0.00 0.00 0.00 0.00 0.00 0.00 0.00 0.00 0.00 0.00 0.00 0.00 0.00 0.00 0.00 0.00 0.00 0.00 0.00 0.00 0.00 0.00 0.00 0.01 0.01 0.01
0.03 0.01 0.00 0.00 0.00 0.00 0.00 0.00 0.00 0.00 0.00 0.00 0.00 0.00 0.00 0.00 0.00 0.00 0.00 0.00 0.00 0.00 0.00 0.00 0.00 0.00 0.00 0.00 0.00 0.00 0.00 0.00 0.00 0.00 0.00 0.00 0.00 0.00 0.01 0.00 0.00 0.00 0.01
0.00 0.04 0.01 0.00 0.00 0.00 0.00 0.00 0.00 0.00 0.00 0.00 0.00 0.00 0.00 0.00 0.00 0.00 0.00 0.00 0.00 0.00 0.00 0.00 0.00 0.00 0.00 0.00 0.00 0.00 0.00 0.00 0.00 0.00 0.01 0.01 0.02 0.03 0.03 0.02 0.01 0.01 0.01
0.01 0.08 0.02 0.00 0.00 0.00 0.00 0.00 0.00 0.00 0.00 0.00 0.00 0.00 0.00 0.00 0.00 0.00 0.00 0.00 0.00 0.00 0.00 0.00 0.00 0.00 0.00 0.00 0.00 0.00 0.00 0.01 0.02 0.02 0.04 0.06 0.06 0.05 0.04 0.03 0.02 0.01 0.00
0.00 0.02 0.01 0.00 0.00 0.00 0.00 0.00 0.00 0.00 0.00 0.00 0.00 0.00 0.00 0.00 0.00 0.00 0.00 0.00 0.00 0.00 0.00 0.00 0.00 0.00 0.00 0.00 0.00 0.00 0.00 0.00 0.00 0.00 0.03 0.05 0.05 0.04 0.02 0.02 0.01 0.00 0.00
0.07 0.01 0.01 0.00 0.00 0.00 0.00 0.00 0.00 0.00 0.00 0.00 0.00 0.00 0.00 0.00 0.00 0.00 0.00 0.00 0.00 0.00 0.00 0.00 0.00 0.00 0.00 0.00 0.00 0.00 0.00 0.00 0.00 0.00 0.00 0.00 0.00 0.00 0.00 0.01 0.03 0.03 0.02
0.05 0.02 0.00 0.00 0.00 0.00 0.00 0.00 0.00 0.00 0.00 0.00 0.00 0.00 0.00 0.00 0.00 0.00 0.00 0.00 0.00 0.00 0.00 0.00 0.00 0.00 0.00 0.00 0.00 0.00 0.00 0.00 0.00 0.00 0.00 0.00 0.00 0.00 0.01 0.02 0.02 0.02 0.04
0.02 0.01 0.01 0.00 0.00 0.00 0.00 0.00 0.00 0.00 0.00 0.00 0.00 0.00 0.00 0.00 0.00 0.00 0.00 0.00 0.00 0.00 0.00 0.00 0.00 0.00 0.00 0.00 0.00 0.00 0.00 0.00 0.00 0.00 0.00 0.00 0.00 0.00 0.00 0.01 0.02 0.02 0.03
0.05 0.06 0.01 0.00 0.00 0.00 0.00 0.00 0.00 0.00 0.00 0.00 0.00 0.00 0.00 0.00 0.00 0.00 0.00 0.00 0.00 0.00 0.00 0.00 0.00 0.00 0.00 0.00 0.00 0.00 0.00 0.00 0.00 0.00 0.00 0.00 0.00 0.00 0.00 0.01 0.01 0.01 0.02
0.03 0.00 0.00 0.00 0.00 0.00 0.00 0.00 0.00 0.00 0.00 0.00 0.00 0.00 0.00 0.00 0.00 0.00 0.00 0.00 0.00 0.00 0.00 0.00 0.00 0.00 0.00 0.00 0.00 0.00 0.00 0.00 0.00 0.00 0.00 0.00 0.00 0.00 0.00 0.00 0.00 0.00 0.01
0.02 0.01 0.01 0.01 0.00 0.01 0.02 0.02 0.01 0.00 0.00 0.00 0.00 0.00 0.00 0.00 0.00 0.00 0.01 0.01 0.01 0.00 0.00 0.00 0.00 0.00 0.00 0.00 0.00 0.00 0.00 0.00 0.00 0.00 0.00 0.00 0.00 0.00 0.00 0.00 0.00 0.00 0.00
0.03 0.04 0.03 0.03 0.05 0.06 0.03 0.01 0.00 0.00 0.00 0.00 0.00 0.00 0.00 0.00 0.01 0.00 0.01 0.02 0.03 0.00 0.00 0.00 0.00 0.00 0.00 0.00 0.00 0.00 0.00 0.00 0.00 0.00 0.00 0.00 0.00 0.00 0.00 0.00 0.00 0.00 0.00
0.03 0.03 0.07 0.10 0.08 0.06 0.01 0.00 0.01 0.02 0.02 0.01 0.00 0.00 0.00 0.00 0.00 0.00 0.00 0.01 0.03 0.02 0.00 0.00 0.00 0.00 0.00 0.00 0.00 0.00 0.00 0.00 0.00 0.00 0.00 0.00 0.00 0.00 0.00 0.00 0.00 0.00 0.00
0.07 0.10 0.11 0.13 0.12 0.10 0.09 0.08 0.07 0.05 0.02 0.00 0.00 0.00 0.00 0.00 0.00 0.00 0.00 0.00 0.00 0.04 0.05 0.00 0.00 0.00 0.00 0.00 0.00 0.00 0.00 0.00 0.00 0.00 0.00 0.00 0.00 0.00 0.00 0.00 0.00 0.01 0.01
0.13 0.17 0.27 0.30 0.27 0.18 0.15 0.12 0.08 0.03 0.00 0.00 0.00 0.00 0.00 0.00 0.00 0.00 0.00 0.00 0.01 0.02 0.01 0.00 0.00 0.00 0.00 0.00 0.00 0.00 0.00 0.00 0.00 0.00 0.00 0.00 0.00 0.00 0.00 0.01 0.01 0.01 0.01
0.33 0.46 0.50 0.34 0.20 0.13 0.07 0.04 0.02 0.01 0.00 0.00 0.00 0.00 0.00 0.00 0.00 0.00 0.00 0.00 0.00 0.00 0.01 0.01 0.00 0.00 0.00 0.00 0.00 0.00 0.00 0.00 0.00 0.00 0.00 0.00 0.00 0.00 0.00 0.00 0.00 0.00 0.00
0.30 0.21 0.14 0.16 0.17 0.13 0.08 0.04 0.01 0.00 0.00 0.00 0.00 0.00 0.00 0.00 0.00 0.00 0.00 0.00 0.00 0.00 0.00 0.00 0.00 0.00 0.00 0.00 0.00 0.00 0.00 0.00 0.00 0.00 0.00 0.00 0.00 0.00 0.00 0.00 0.00 0.00 0.00
0.18 0.17 0.20 0.22 0.11 0.04 0.01 0.00 0.00 0.00 0.00 0.00 0.00 0.00 0.00 0.00 0.00 0.00 0.00 0.00 0.00 0.00 0.00 0.00 0.00 0.00 0.00 0.00 0.01 0.02 0.01 0.01 0.00 0.00 0.00 0.00 0.00 0.00 0.00 0.00 0.00 0.00 0.00
0.08 0.06 0.04 0.02 0.00 0.00 0.00 0.00 0.00 0.00 0.00 0.00 0.00 0.00 0.00 0.00 0.00 0.00 0.00 0.00 0.00 0.00 0.00 0.00 0.01 0.01 0.01 0.01 0.02 0.04 0.04 0.01 0.00 0.00 0.00 0.00 0.00 0.00 0.00 0.00 0.00 0.01 0.01
0.00 0.00 0.00 0.00 0.00 0.00 0.00 0.00 0.00 0.00 0.00 0.00 0.00 0.00 0.00 0.00 0.00 0.00 0.00 0.00 0.00 0.00 0.01 0.02 0.03 0.03 0.03 0.04 0.07 0.05 0.04 0.03 0.01 0.00 0.00 0.00 0.00 0.00 0.00 0.00 0.00 0.00 0.00
0.00 0.00 0.00 0.00 0.00 0.00 0.00 0.00 0.00 0.00 0.00 0.00 0.00 0.00 0.00 0.00 0.00 0.00 0.00 0.00 0.00 0.00 0.00 0.02 0.03 0.03 0.05 0.04 0.03 0.01 0.00 0.02 0.01 0.00 0.01 0.01 0.00 0.00 0.00 0.00 0.00 0.00 0.00
0.00 0.00 0.00 0.00 0.00 0.00 0.00 0.00 0.00 0.00 0.00 0.00 0.00 0.00 0.00 0.00 0.00 0.00 0.00 0.00 0.01 0.02 0.02 0.01 0.01 0.01 0.01 0.00 0.01 0.02 0.03 0.02 0.01 0.00 0.01 0.09 0.00 0.00 0.00 0.00 0.00 0.00 0.00
0.00 0.00 0.00 0.00 0.00 0.00 0.00 0.00 0.00 0.00 0.00 0.00 0.00 0.00 0.00 0.00 0.00 0.00 0.00 0.01 0.01 0.00 0.00 0.00 0.02 0.01 0.00 0.00 0.00 0.02 0.03 0.06 0.03 0.01 0.00 0.03 0.00 0.00 0.00 0.00 0.00 0.00 0.00
0.00 0.00 0.00 0.00 0.00 0.00 0.00 0.00 0.00 0.00 0.00 0.00 0.00 0.00 0.00 0.00 0.00 0.00 0.01 0.02 0.04 0.01 0.01 0.02 0.03 0.02 0.01 0.01 0.00 0.01 0.03 0.05 0.03 0.03 0.00 0.02 0.00 0.04 0.10 0.00 0.00 0.00 0.00

GFSMA_prec_precacc24_084.txt.gz
Total_Precipitation_Accumulation
0.04 0.04 0.02 0.01 0.01 0.00 0.00 0.00 0.00 0.00 0.00 0.00 0.00 0.00 0.00 0.00 0.00 0.00 0.00 0.00 0.00 0.00 0.00 0.00 0.00 0.00 0.00 0.00 0.00 0.00 0.00 0.00 0.00 0.00 0.00 0.00 0.00 0.00 0.00 0.00 0.00 0.00 0.00
0.13 0.09 0.04 0.01 0.01 0.00 0.00 0.00 0.00 0.00 0.00 0.00 0.00 0.00 0.00 0.00 0.00 0.00 0.00 0.00 0.00 0.00 0.00 0.00 0.00 0.00 0.00 0.00 0.00 0.00 0.00 0.00 0.00 0.00 0.00 0.00 0.00 0.00 0.00 0.00 0.00 0.00 0.00
0.16 0.08 0.04 0.01 0.00 0.00 0.00 0.00 0.00 0.00 0.00 0.00 0.00 0.00 0.00 0.00 0.00 0.00 0.00 0.00 0.00 0.00 0.00 0.00 0.00 0.00 0.00 0.00 0.00 0.00 0.00 0.00 0.00 0.00 0.00 0.00 0.01 0.01 0.01 0.01 0.00 0.00 0.00
0.08 0.08 0.05 0.01 0.00 0.00 0.00 0.00 0.00 0.00 0.00 0.00 0.00 0.00 0.00 0.00 0.00 0.00 0.00 0.00 0.00 0.00 0.00 0.00 0.00 0.00 0.00 0.00 0.00 0.00 0.00 0.00 0.00 0.00 0.00 0.01 0.01 0.01 0.01 0.01 0.00 0.00 0.01
0.08 0.07 0.04 0.02 0.01 0.00 0.00 0.00 0.00 0.00 0.00 0.00 0.00 0.00 0.00 0.00 0.00 0.00 0.00 0.00 0.00 0.00 0.00 0.00 0.00 0.00 0.00 0.00 0.00 0.00 0.00 0.00 0.00 0.00 0.01 0.01 0.02 0.03 0.03 0.02 0.01 0.02 0.01
0.24 0.21 0.11 0.03 0.02 0.00 0.00 0.00 0.00 0.00 0.00 0.00 0.00 0.00 0.00 0.00 0.00 0.00 0.00 0.00 0.00 0.00 0.00 0.00 0.00 0.00 0.00 0.00 0.00 0.00 0.00 0.00 0.02 0.02 0.04 0.06 0.06 0.05 0.04 0.03 0.02 0.01 0.00
0.10 0.15 0.07 0.04 0.00 0.00 0.00 0.00 0.00 0.00 0.00 0.00 0.00 0.00 0.00 0.00 0.00 0.00 0.00 0.00 0.00 0.00 0.00 0.00 0.00 0.00 0.00 0.00 0.00 0.00 0.00 0.00 0.00 0.00 0.03 0.05 0.05 0.04 0.02 0.02 0.01 0.00 0.00
0.18 0.07 0.02 0.07 0.00 0.00 0.00 0.00 0.00 0.00 0.00 0.00 0.00 0.00 0.00 0.00 0.00 0.00 0.00 0.00 0.00 0.00 0.00 0.00 0.00 0.00 0.00 0.00 0.00 0.00 0.00 0.00 0.00 0.00 0.00 0.00 0.00 0.00 0.00 0.01 0.03 0.03 0.02
0.28 0.22 0.02 0.02 0.00 0.00 0.00 0.00 0.00 0.00 0.00 0.00 0.00 0.00 0.00 0.00 0.00 0.00 0.00 0.00 0.00 0.00 0.00 0.00 0.00 0.00 0.00 0.00 0.00 0.00 0.00 0.00 0.00 0.00 0.00 0.00 0.00 0.00 0.01 0.02 0.02 0.02 0.04
0.09 0.07 0.01 0.01 0.00 0.00 0.00 0.00 0.00 0.00 0.00 0.00 0.00 0.00 0.00 0.00 0.00 0.00 0.00 0.00 0.00 0.00 0.00 0.00 0.00 0.00 0.00 0.00 0.00 0.00 0.00 0.00 0.00 0.00 0.00 0.00 0.00 0.00 0.00 0.01 0.02 0.02 0.03
0.08 0.08 0.02 0.03 0.02 0.00 0.00 0.00 0.00 0.00 0.00 0.00 0.00 0.00 0.00 0.00 0.00 0.00 0.00 0.00 0.00 0.00 0.00 0.00 0.00 0.00 0.00 0.00 0.00 0.00 0.00 0.00 0.00 0.00 0.00 0.00 0.00 0.00 0.00 0.01 0.01 0.01 0.02
0.06 0.02 0.01 0.00 0.01 0.01 0.02 0.01 0.00 0.00 0.00 0.00 0.00 0.00 0.00 0.00 0.00 0.00 0.00 0.00 0.00 0.00 0.00 0.00 0.00 0.00 0.00 0.00 0.00 0.00 0.00 0.00 0.00 0.00 0.00 0.00 0.00 0.00 0.00 0.00 0.00 0.00 0.01
0.03 0.02 0.01 0.01 0.01 0.02 0.03 0.03 0.01 0.00 0.00 0.00 0.01 0.01 0.00 0.00 0.00 0.00 0.00 0.00 0.00 0.00 0.00 0.00 0.00 0.00 0.00 0.00 0.00 0.00 0.00 0.00 0.00 0.00 0.00 0.00 0.00 0.00 0.00 0.00 0.00 0.00 0.00
0.03 0.03 0.04 0.03 0.05 0.06 0.04 0.02 0.01 0.03 0.08 0.14 0.13 0.08 0.05 0.02 0.00 0.00 0.00 0.01 0.01 0.00 0.00 0.00 0.00 0.00 0.00 0.00 0.00 0.00 0.00 0.00 0.00 0.00 0.00 0.00 0.00 0.00 0.00 0.00 0.00 0.00 0.00
0.05 0.04 0.11 0.12 0.09 0.06 0.03 0.04 0.13 0.21 0.22 0.19 0.17 0.11 0.05 0.02 0.01 0.00 0.00 0.01 0.02 0.02 0.00 0.00 0.00 0.00 0.00 0.00 0.00 0.00 0.00 0.00 0.00 0.00 0.00 0.00 0.00 0.00 0.00 0.00 0.00 0.00 0.00
0.22 0.31 0.25 0.17 0.14 0.14 0.21 0.36 0.43 0.38 0.27 0.19 0.14 0.09 0.04 0.03 0.01 0.00 0.00 0.00 0.00 0.03 0.04 0.00 0.00 0.00 0.00 0.00 0.00 0.00 0.00 0.00 0.00 0.00 0.00 0.00 0.00 0.00 0.00 0.00 0.00 0.00 0.01
0.47 0.43 0.45 0.43 0.54 0.60 0.49 0.34 0.23 0.16 0.11 0.08 0.05 0.02 0.01 0.00 0.00 0.00 0.00 0.00 0.00 0.01 0.01 0.00 0.00 0.00 0.00 0.00 0.00 0.00 0.00 0.00 0.00 0.00 0.00 0.00 0.00 0.01 0.00 0.01 0.01 0.00 0.00
0.57 0.61 0.64 0.43 0.25 0.16 0.11 0.09 0.08 0.07 0.04 0.03 0.01 0.00 0.00 0.00 0.00 0.00 0.00 0.00 0.00 0.00 0.01 0.01 0.00 0.00 0.00 0.00 0.00 0.00 0.00 0.00 0.00 0.00 0.00 0.00 0.00 0.00 0.00 0.01 0.00 0.00 0.00
0.53 0.31 0.18 0.18 0.18 0.14 0.09 0.08 0.05 0.03 0.02 0.01 0.00 0.00 0.00 0.00 0.00 0.00 0.00 0.00 0.00 0.00 0.00 0.00 0.00 0.00 0.00 0.00 0.00 0.00 0.00 0.00 0.00 0.00 0.00 0.00 0.00 0.00 0.01 0.00 0.00 0.00 0.00
0.28 0.28 0.29 0.26 0.14 0.06 0.04 0.04 0.04 0.03 0.03 0.01 0.00 0.00 0.00 0.00 0.00 0.00 0.00 0.00 0.00 0.00 0.00 0.00 0.00 0.00 0.00 0.00 0.01 0.02 0.01 0.01 0.00 0.00 0.00 0.00 0.00 0.00 0.00 0.00 0.00 0.00 0.00
0.16 0.11 0.06 0.03 0.02 0.02 0.04 0.04 0.02 0.01 0.01 0.01 0.00 0.00 0.00 0.00 0.00 0.00 0.00 0.00 0.00 0.00 0.00 0.00 0.01 0.01 0.01 0.01 0.02 0.03 0.02 0.01 0.01 0.00 0.00 0.00 0.00 0.00 0.00 0.00 0.00 0.00 0.01
0.03 0.01 0.01 0.01 0.02 0.03 0.11 0.08 0.03 0.01 0.01 0.00 0.00 0.00 0.00 0.00 0.00 0.00 0.00 0.00 0.00 0.00 0.01 0.02 0.03 0.03 0.03 0.03 0.03 0.03 0.04 0.06 0.05 0.00 0.00 0.00 0.00 0.00 0.00 0.00 0.00 0.00 0.00
0.02 0.01 0.01 0.01 0.02 0.02 0.04 0.02 0.01 0.00 0.00 0.00 0.00 0.00 0.00 0.00 0.00 0.00 0.00 0.00 0.00 0.00 0.00 0.02 0.03 0.03 0.03 0.03 0.04 0.03 0.02 0.03 0.02 0.00 0.00 0.00 0.00 0.00 0.00 0.00 0.00 0.00 0.00
0.04 0.03 0.03 0.04 0.05 0.04 0.04 0.02 0.01 0.00 0.00 0.00 0.00 0.00 0.00 0.00 0.00 0.00 0.00 0.00 0.01 0.02 0.02 0.01 0.01 0.01 0.01 0.01 0.02 0.02 0.03 0.03 0.01 0.00 0.00 0.01 0.00 0.00 0.00 0.00 0.00 0.00 0.00
0.04 0.04 0.03 0.02 0.01 0.01 0.01 0.00 0.00 0.00 0.00 0.00 0.00 0.00 0.00 0.00 0.00 0.00 0.00 0.01 0.01 0.00 0.00 0.00 0.02 0.01 0.00 0.00 0.01 0.03 0.03 0.05 0.04 0.01 0.00 0.02 0.00 0.00 0.00 0.00 0.00 0.00 0.00
0.01 0.00 0.00 0.00 0.00 0.00 0.00 0.00 0.00 0.00 0.00 0.00 0.00 0.00 0.00 0.00 0.00 0.00 0.01 0.02 0.04 0.01 0.01 0.02 0.03 0.02 0.01 0.01 0.02 0.04 0.04 0.08 0.08 0.06 0.01 0.05 0.01 0.03 0.06 0.00 0.00 0.00 0.00

GFSMA_prec_precacc24_090.txt.gz
Total_Precipitation_Accumulation
0.04 0.04 0.02 0.01 0.01 0.00 0.00 0.00 0.00 0.00 0.00 0.00 0.00 0.00 0.00 0.00 0.00 0.00 0.00 0.00 0.00 0.00 0.00 0.00 0.00 0.00 0.00 0.00 0.00 0.00 0.00 0.00 0.00 0.00 0.00 0.00 0.00 0.00 0.00 0.00 0.00 0.00 0.00
0.13 0.09 0.04 0.01 0.01 0.00 0.00 0.00 0.00 0.00 0.00 0.00 0.00 0.00 0.00 0.00 0.00 0.00 0.00 0.00 0.00 0.00 0.00 0.00 0.00 0.00 0.00 0.00 0.00 0.00 0.00 0.00 0.00 0.00 0.00 0.00 0.01 0.01 0.00 0.00 0.00 0.00 0.00
0.16 0.08 0.04 0.01 0.00 0.00 0.00 0.00 0.00 0.00 0.00 0.00 0.00 0.00 0.00 0.00 0.00 0.00 0.00 0.00 0.00 0.00 0.00 0.00 0.00 0.00 0.00 0.00 0.00 0.00 0.00 0.00 0.00 0.00 0.00 0.01 0.02 0.01 0.01 0.01 0.00 0.00 0.01
0.08 0.08 0.05 0.01 0.00 0.00 0.00 0.00 0.00 0.00 0.00 0.00 0.00 0.00 0.00 0.00 0.00 0.00 0.00 0.00 0.00 0.00 0.00 0.00 0.00 0.00 0.00 0.00 0.00 0.00 0.00 0.00 0.00 0.00 0.00 0.01 0.01 0.01 0.01 0.01 0.00 0.00 0.01
0.09 0.07 0.04 0.02 0.01 0.00 0.00 0.00 0.00 0.00 0.00 0.00 0.00 0.00 0.00 0.00 0.00 0.00 0.00 0.00 0.00 0.00 0.00 0.00 0.00 0.00 0.00 0.00 0.00 0.00 0.00 0.00 0.00 0.00 0.01 0.01 0.02 0.03 0.03 0.02 0.01 0.02 0.01
0.24 0.23 0.12 0.03 0.02 0.00 0.00 0.00 0.00 0.00 0.00 0.00 0.00 0.00 0.00 0.00 0.00 0.00 0.00 0.00 0.00 0.00 0.00 0.00 0.00 0.00 0.00 0.00 0.00 0.00 0.00 0.00 0.00 0.02 0.03 0.06 0.06 0.05 0.04 0.03 0.02 0.01 0.00
0.10 0.18 0.08 0.04 0.00 0.00 0.00 0.00 0.00 0.00 0.00 0.00 0.00 0.00 0.00 0.00 0.00 0.00 0.00 0.00 0.00 0.00 0.00 0.00 0.00 0.00 0.00 0.00 0.00 0.00 0.00 0.00 0.00 0.00 0.01 0.04 0.04 0.04 0.02 0.02 0.01 0.00 0.00
0.19 0.08 0.02 0.07 0.00 0.00 0.00 0.01 0.00 0.00 0.00 0.00 0.00 0.00 0.00 0.00 0.00 0.00 0.00 0.00 0.00 0.00 0.00 0.00 0.00 0.00 0.00 0.00 0.00 0.00 0.00 0.00 0.00 0.00 0.00 0.00 0.00 0.00 0.00 0.01 0.03 0.03 0.02
0.30 0.23 0.03 0.03 0.02 0.01 0.01 0.01 0.01 0.00 0.00 0.00 0.00 0.00 0.00 0.00 0.00 0.00 0.00 0.00 0.00 0.00 0.00 0.00 0.00 0.00 0.00 0.00 0.00 0.00 0.00 0.00 0.00 0.00 0.00 0.00 0.00 0.00 0.01 0.02 0.02 0.02 0.04
0.10 0.08 0.02 0.01 0.01 0.02 0.01 0.02 0.02 0.01 0.00 0.00 0.00 0.00 0.00 0.00 0.00 0.00 0.00 0.00 0.00 0.00 0.00 0.00 0.00 0.00 0.00 0.00 0.00 0.00 0.00 0.00 0.00 0.00 0.00 0.00 0.00 0.00 0.00 0.01 0.02 0.02 0.03
0.08 0.08 0.02 0.03 0.02 0.00 0.02 0.04 0.02 0.02 0.01 0.01 0.00 0.00 0.00 0.00 0.00 0.00 0.00 0.00 0.00 0.00 0.00 0.00 0.00 0.00 0.00 0.00 0.00 0.00 0.00 0.00 0.00 0.00 0.00 0.00 0.00 0.00 0.01 0.01 0.01 0.01 0.01
0.06 0.02 0.01 0.00 0.00 0.02 0.05 0.06 0.10 0.06 0.03 0.01 0.00 0.00 0.00 0.00 0.00 0.00 0.00 0.00 0.00 0.00 0.00 0.00 0.00 0.00 0.00 0.00 0.00 0.00 0.00 0.00 0.00 0.00 0.00 0.00 0.00 0.00 0.00 0.00 0.00 0.00 0.01
0.02 0.02 0.01 0.00 0.01 0.06 0.08 0.08 0.10 0.08 0.04 0.03 0.03 0.03 0.03 0.04 0.04 0.05 0.04 0.03 0.02 0.01 0.00 0.00 0.00 0.00 0.00 0.00 0.00 0.00 0.00 0.00 0.00 0.00 0.00 0.00 0.00 0.00 0.00 0.00 0.00 0.00 0.01
0.02 0.01 0.01 0.01 0.05 0.08 0.06 0.04 0.05 0.07 0.14 0.21 0.22 0.19 0.16 0.13 0.10 0.06 0.03 0.02 0.02 0.00 0.00 0.00 0.00 0.00 0.00 0.00 0.00 0.00 0.00 0.00 0.00 0.00 0.00 0.00 0.00 0.00 0.00 0.00 0.00 0.00 0.00
0.04 0.02 0.07 0.13 0.11 0.08 0.04 0.07 0.16 0.26 0.29 0.26 0.22 0.17 0.14 0.08 0.04 0.02 0.01 0.00 0.01 0.00 0.00 0.00 0.00 0.00 0.00 0.00 0.00 0.00 0.00 0.00 0.00 0.00 0.00 0.00 0.00 0.00 0.00 0.00 0.00 0.00 0.00
0.18 0.28 0.30 0.25 0.20 0.17 0.25 0.43 0.49 0.44 0.33 0.24 0.18 0.13 0.09 0.06 0.03 0.01 0.00 0.00 0.00 0.00 0.00 0.00 0.00 0.00 0.00 0.00 0.00 0.00 0.00 0.00 0.00 0.00 0.00 0.00 0.00 0.00 0.01 0.01 0.01 0.01 0.01
0.50 0.53 0.56 0.55 0.68 0.80 0.72 0.58 0.48 0.38 0.24 0.13 0.08 0.05 0.03 0.02 0.00 0.00 0.00 0.00 0.00 0.00 0.00 0.00 0.00 0.00 0.00 0.00 0.00 0.00 0.00 0.00 0.00 0.00 0.00 0.00 0.00 0.00 0.00 0.01 0.01 0.01 0.02
0.80 0.89 0.92 0.75 0.64 0.66 0.68 0.62 0.53 0.40 0.17 0.06 0.03 0.02 0.01 0.01 0.00 0.00 0.00 0.00 0.00 0.00 0.01 0.01 0.00 0.00 0.00 0.00 0.00 0.00 0.00 0.00 0.00 0.00 0.00 0.00 0.00 0.00 0.00 0.01 0.01 0.01 0.01
1.22 1.19 1.13 0.97 0.84 0.66 0.47 0.33 0.22 0.13 0.07 0.07 0.06 0.04 0.03 0.02 0.03 0.04 0.02 0.00 0.00 0.00 0.00 0.00 0.00 0.00 0.00 0.00 0.00 0.00 0.00 0.00 0.00 0.00 0.00 0.00 0.00 0.00 0.01 0.00 0.00 0.00 0.00
0.95 0.73 0.67 0.48 0.20 0.11 0.07 0.07 0.09 0.10 0.11 0.10 0.07 0.05 0.04 0.03 0.03 0.03 0.02 0.01 0.01 0.01 0.00 0.00 0.00 0.00 0.00 0.00 0.01 0.02 0.01 0.01 0.00 0.00 0.00 0.00 0.00 0.00 0.00 0.00 0.00 0.01 0.00
0.33 0.25 0.16 0.10 0.05 0.04 0.07 0.08 0.07 0.06 0.06 0.07 0.10 0.12 0.14 0.14 0.08 0.03 0.01 0.02 0.02 0.01 0.00 0.00 0.01 0.01 0.01 0.01 0.02 0.03 0.02 0.01 0.01 0.00 0.00 0.00 0.00 0.00 0.00 0.00 0.00 0.00 0.01
0.13 0.11 0.11 0.09 0.10 0.09 0.21 0.20 0.16 0.16 0.19 0.21 0.21 0.17 0.14 0.14 0.10 0.06 0.03 0.01 0.00 0.00 0.01 0.02 0.03 0.03 0.03 0.03 0.03 0.03 0.04 0.06 0.05 0.00 0.00 0.00 0.00 0.00 0.00 0.00 0.00 0.00 0.00
0.09 0.08 0.08 0.08 0.10 0.13 0.30 0.25 0.22 0.14 0.16 0.15 0.12 0.10 0.08 0.05 0.03 0.02 0.01 0.00 0.00 0.00 0.00 0.02 0.03 0.03 0.03 0.03 0.04 0.03 0.02 0.02 0.01 0.00 0.00 0.00 0.00 0.00 0.00 0.00 0.00 0.00 0.00
0.07 0.08 0.10 0.15 0.18 0.31 0.43 0.32 0.33 0.27 0.29 0.23 0.19 0.14 0.08 0.01 0.00 0.00 0.00 0.00 0.01 0.02 0.02 0.01 0.01 0.01 0.01 0.01 0.02 0.02 0.02 0.02 0.01 0.00 0.01 0.03 0.00 0.00 0.00 0.00 0.00 0.00 0.00
0.07 0.10 0.12 0.15 0.16 0.23 0.31 0.23 0.18 0.13 0.12 0.08 0.05 0.02 0.01 0.01 0.00 0.00 0.00 0.01 0.01 0.00 0.00 0.00 0.02 0.01 0.00 0.00 0.01 0.03 0.04 0.06 0.04 0.01 0.00 0.02 0.01 0.00 0.00 0.00 0.00 0.00 0.00
0.10 0.10 0.11 0.10 0.13 0.09 0.15 0.10 0.05 0.02 0.02 0.02 0.02 0.03 0.04 0.02 0.00 0.00 0.01 0.02 0.04 0.01 0.01 0.02 0.03 0.02 0.01 0.01 0.02 0.05 0.06 0.11 0.10 0.07 0.01 0.05 0.02 0.03 0.04 0.00 0.00 0.00 0.00

GFSMA_prec_precacc24_093.txt.gz
Total_Precipitation_Accumulation
0.04 0.04 0.01 0.00 0.00 0.00 0.00 0.00 0.00 0.00 0.00 0.00 0.00 0.00 0.00 0.00 0.00 0.00 0.00 0.00 0.00 0.00 0.00 0.00 0.00 0.00 0.00 0.00 0.00 0.00 0.00 0.00 0.00 0.00 0.00 0.00 0.00 0.00 0.00 0.00 0.00 0.00 0.00
0.11 0.07 0.03 0.01 0.01 0.00 0.00 0.00 0.00 0.00 0.00 0.00 0.00 0.00 0.00 0.00 0.00 0.00 0.00 0.00 0.00 0.00 0.00 0.00 0.00 0.00 0.00 0.00 0.00 0.00 0.00 0.00 0.00 0.00 0.00 0.00 0.01 0.01 0.00 0.00 0.00 0.00 0.00
0.11 0.07 0.04 0.01 0.00 0.00 0.00 0.00 0.00 0.00 0.00 0.00 0.00 0.00 0.00 0.00 0.00 0.00 0.00 0.00 0.00 0.00 0.00 0.00 0.00 0.00 0.00 0.00 0.00 0.00 0.00 0.00 0.00 0.00 0.00 0.01 0.02 0.01 0.01 0.01 0.00 0.00 0.01
0.08 0.08 0.05 0.01 0.00 0.00 0.00 0.00 0.00 0.00 0.00 0.00 0.00 0.00 0.00 0.00 0.00 0.00 0.00 0.00 0.00 0.00 0.00 0.00 0.00 0.00 0.00 0.00 0.00 0.00 0.00 0.00 0.00 0.00 0.00 0.01 0.01 0.01 0.01 0.01 0.00 0.00 0.01
0.09 0.07 0.04 0.02 0.01 0.00 0.00 0.00 0.00 0.00 0.00 0.00 0.00 0.00 0.00 0.00 0.00 0.00 0.00 0.00 0.00 0.00 0.00 0.00 0.00 0.00 0.00 0.00 0.00 0.00 0.00 0.00 0.00 0.00 0.01 0.01 0.02 0.03 0.03 0.02 0.01 0.02 0.01
0.25 0.23 0.12 0.03 0.02 0.00 0.00 0.00 0.00 0.00 0.00 0.00 0.00 0.00 0.00 0.00 0.00 0.00 0.00 0.00 0.00 0.00 0.00 0.00 0.00 0.00 0.00 0.00 0.00 0.00 0.00 0.00 0.00 0.00 0.02 0.04 0.05 0.05 0.04 0.03 0.02 0.01 0.00
0.12 0.19 0.08 0.04 0.00 0.00 0.00 0.00 0.00 0.01 0.01 0.00 0.00 0.00 0.00 0.00 0.00 0.00 0.00 0.00 0.00 0.00 0.00 0.00 0.00 0.00 0.00 0.00 0.00 0.00 0.00 0.00 0.00 0.00 0.00 0.00 0.01 0.02 0.02 0.02 0.01 0.00 0.00
0.20 0.09 0.02 0.07 0.00 0.00 0.00 0.01 0.01 0.02 0.01 0.00 0.00 0.00 0.00 0.00 0.00 0.00 0.00 0.00 0.00 0.00 0.00 0.00 0.00 0.00 0.00 0.00 0.00 0.00 0.00 0.00 0.00 0.00 0.00 0.00 0.00 0.00 0.00 0.01 0.03 0.03 0.02
0.31 0.24 0.04 0.03 0.02 0.01 0.01 0.01 0.01 0.01 0.01 0.00 0.00 0.00 0.00 0.00 0.00 0.00 0.00 0.00 0.00 0.00 0.00 0.00 0.00 0.00 0.00 0.00 0.00 0.00 0.00 0.00 0.00 0.00 0.00 0.00 0.00 0.00 0.00 0.01 0.01 0.02 0.04
0.10 0.10 0.03 0.02 0.02 0.02 0.01 0.03 0.03 0.03 0.02 0.01 0.00 0.00 0.00 0.00 0.00 0.00 0.00 0.00 0.00 0.00 0.00 0.00 0.00 0.00 0.00 0.00 0.00 0.00 0.00 0.00 0.00 0.00 0.00 0.00 0.00 0.00 0.00 0.01 0.01 0.01 0.03
0.09 0.08 0.04 0.05 0.04 0.01 0.06 0.06 0.03 0.04 0.05 0.04 0.02 0.01 0.00 0.00 0.00 0.00 0.00 0.00 0.00 0.00 0.00 0.00 0.00 0.00 0.00 0.00 0.00 0.00 0.00 0.00 0.00 0.00 0.00 0.00 0.00 0.00 0.00 0.00 0.00 0.00 0.00
0.06 0.02 0.01 0.01 0.01 0.02 0.06 0.08 0.13 0.10 0.08 0.05 0.03 0.02 0.01 0.01 0.03 0.03 0.02 0.01 0.01 0.00 0.00 0.00 0.00 0.00 0.00 0.00 0.00 0.00 0.00 0.00 0.00 0.00 0.00 0.00 0.00 0.00 0.00 0.00 0.00 0.01 0.02
0.02 0.02 0.01 0.00 0.01 0.05 0.06 0.08 0.10 0.09 0.08 0.06 0.06 0.07 0.08 0.07 0.06 0.06 0.05 0.03 0.02 0.01 0.00 0.00 0.00 0.00 0.00 0.00 0.00 0.00 0.00 0.00 0.00 0.00 0.00 0.00 0.00 0.00 0.00 0.00 0.00 0.00 0.01
0.02 0.01 0.01 0.01 0.01 0.04 0.06 0.04 0.05 0.08 0.15 0.24 0.25 0.23 0.21 0.16 0.11 0.07 0.04 0.03 0.02 0.00 0.00 0.00 0.00 0.00 0.00 0.00 0.00 0.00 0.00 0.00 0.00 0.00 0.00 0.00 0.00 0.00 0.00 0.00 0.00 0.00 0.00
0.04 0.02 0.06 0.06 0.04 0.07 0.04 0.07 0.16 0.26 0.30 0.29 0.26 0.22 0.17 0.09 0.05 0.03 0.02 0.01 0.01 0.01 0.00 0.00 0.00 0.00 0.00 0.00 0.00 0.00 0.00 0.00 0.00 0.00 0.00 0.00 0.00 0.00 0.00 0.00 0.00 0.00 0.00
0.18 0.26 0.22 0.16 0.17 0.17 0.25 0.43 0.49 0.45 0.34 0.26 0.21 0.17 0.12 0.08 0.07 0.08 0.08 0.06 0.03 0.00 0.00 0.00 0.00 0.00 0.00 0.00 0.00 0.00 0.00 0.00 0.00 0.00 0.00 0.00 0.00 0.00 0.01 0.01 0.01 0.00 0.01
0.46 0.44 0.49 0.53 0.68 0.80 0.73 0.59 0.50 0.41 0.33 0.28 0.21 0.16 0.11 0.09 0.09 0.08 0.08 0.06 0.02 0.00 0.00 0.00 0.00 0.00 0.00 0.00 0.00 0.00 0.00 0.00 0.00 0.00 0.00 0.00 0.00 0.00 0.00 0.01 0.01 0.01 0.02
0.73 0.87 0.92 0.76 0.65 0.71 0.84 0.89 0.78 0.69 0.58 0.46 0.35 0.29 0.17 0.10 0.07 0.06 0.05 0.01 0.00 0.00 0.01 0.01 0.00 0.00 0.00 0.00 0.00 0.00 0.00 0.00 0.00 0.00 0.00 0.00 0.00 0.00 0.00 0.01 0.01 0.01 0.01
1.22 1.20 1.15 1.02 0.90 0.79 0.64 0.52 0.37 0.30 0.26 0.24 0.20 0.16 0.13 0.10 0.08 0.09 0.09 0.06 0.05 0.04 0.03 0.01 0.00 0.00 0.00 0.00 0.00 0.00 0.00 0.00 0.00 0.00 0.00 0.00 0.00 0.00 0.01 0.00 0.00 0.00 0.00
0.96 0.73 0.69 0.53 0.27 0.13 0.08 0.08 0.09 0.11 0.14 0.16 0.14 0.13 0.14 0.15 0.13 0.14 0.08 0.07 0.08 0.07 0.05 0.02 0.02 0.01 0.01 0.00 0.01 0.02 0.01 0.01 0.00 0.00 0.00 0.00 0.00 0.00 0.00 0.00 0.00 0.01 0.00
0.35 0.29 0.20 0.15 0.10 0.07 0.09 0.10 0.08 0.07 0.07 0.09 0.13 0.16 0.17 0.22 0.22 0.18 0.15 0.13 0.14 0.13 0.10 0.06 0.03 0.03 0.02 0.02 0.03 0.03 0.02 0.01 0.01 0.00 0.00 0.00 0.00 0.00 0.00 0.00 0.00 0.00 0.01
0.16 0.13 0.14 0.12 0.13 0.12 0.25 0.23 0.18 0.17 0.19 0.22 0.21 0.18 0.17 0.23 0.18 0.19 0.18 0.17 0.14 0.11 0.08 0.06 0.05 0.06 0.05 0.04 0.04 0.03 0.04 0.06 0.05 0.00 0.00 0.00 0.00 0.00 0.00 0.00 0.00 0.00 0.00
0.10 0.09 0.09 0.09 0.13 0.17 0.38 0.29 0.27 0.16 0.18 0.24 0.29 0.34 0.39 0.39 0.34 0.23 0.19 0.11 0.06 0.05 0.03 0.05 0.06 0.05 0.04 0.03 0.04 0.03 0.02 0.02 0.01 0.00 0.00 0.00 0.00 0.00 0.00 0.00 0.00 0.00 0.00
0.09 0.10 0.14 0.21 0.24 0.36 0.49 0.35 0.37 0.29 0.34 0.39 0.38 0.31 0.25 0.19 0.15 0.11 0.08 0.07 0.06 0.07 0.06 0.04 0.03 0.01 0.01 0.01 0.02 0.02 0.02 0.02 0.01 0.00 0.01 0.03 0.00 0.00 0.00 0.00 0.00 0.00 0.00
0.11 0.15 0.16 0.18 0.18 0.24 0.35 0.24 0.20 0.13 0.14 0.13 0.10 0.08 0.08 0.07 0.09 0.09 0.08 0.07 0.05 0.03 0.02 0.01 0.02 0.01 0.01 0.01 0.01 0.03 0.04 0.06 0.04 0.01 0.00 0.02 0.01 0.00 0.00 0.00 0.00 0.00 0.00
0.12 0.11 0.13 0.11 0.15 0.10 0.18 0.13 0.08 0.03 0.05 0.06 0.07 0.09 0.12 0.07 0.05 0.03 0.02 0.04 0.06 0.03 0.03 0.04 0.04 0.02 0.01 0.01 0.02 0.05 0.07 0.12 0.10 0.07 0.01 0.06 0.02 0.03 0.04 0.00 0.00 0.00 0.00

GFSMA_prec_precacc24_096.txt.gz
Total_Precipitation_Accumulation
0.04 0.04 0.01 0.00 0.00 0.00 0.00 0.00 0.00 0.00 0.00 0.00 0.00 0.00 0.00 0.00 0.00 0.00 0.00 0.00 0.00 0.00 0.00 0.00 0.00 0.00 0.00 0.00 0.00 0.00 0.00 0.00 0.00 0.00 0.00 0.00 0.00 0.00 0.00 0.00 0.00 0.00 0.00
0.10 0.05 0.01 0.00 0.00 0.00 0.00 0.00 0.00 0.00 0.00 0.00 0.00 0.00 0.00 0.00 0.00 0.00 0.00 0.00 0.00 0.00 0.00 0.00 0.00 0.00 0.00 0.00 0.00 0.00 0.00 0.00 0.00 0.00 0.00 0.00 0.01 0.01 0.00 0.00 0.00 0.00 0.00
0.06 0.03 0.03 0.01 0.00 0.00 0.00 0.00 0.00 0.00 0.00 0.00 0.00 0.00 0.00 0.00 0.00 0.00 0.00 0.00 0.00 0.00 0.00 0.00 0.00 0.00 0.00 0.00 0.00 0.00 0.00 0.00 0.00 0.00 0.00 0.01 0.02 0.01 0.01 0.01 0.00 0.00 0.01
0.06 0.07 0.05 0.01 0.00 0.00 0.00 0.00 0.00 0.00 0.00 0.00 0.00 0.00 0.00 0.00 0.00 0.00 0.00 0.00 0.00 0.00 0.00 0.00 0.00 0.00 0.00 0.00 0.00 0.00 0.00 0.00 0.00 0.00 0.00 0.01 0.01 0.01 0.01 0.01 0.00 0.00 0.01
0.09 0.07 0.04 0.02 0.01 0.00 0.00 0.00 0.00 0.00 0.00 0.00 0.00 0.00 0.00 0.00 0.00 0.00 0.00 0.00 0.00 0.00 0.00 0.00 0.00 0.00 0.00 0.00 0.00 0.00 0.00 0.00 0.00 0.00 0.00 0.01 0.02 0.03 0.03 0.02 0.01 0.02 0.01
0.25 0.23 0.12 0.03 0.02 0.00 0.00 0.00 0.00 0.00 0.00 0.00 0.00 0.00 0.00 0.00 0.00 0.00 0.00 0.00 0.00 0.00 0.00 0.00 0.00 0.00 0.00 0.00 0.00 0.00 0.00 0.00 0.00 0.00 0.00 0.01 0.02 0.03 0.03 0.03 0.02 0.01 0.00
0.12 0.19 0.08 0.04 0.00 0.00 0.00 0.00 0.00 0.01 0.01 0.01 0.00 0.00 0.00 0.00 0.00 0.00 0.00 0.00 0.00 0.00 0.00 0.00 0.00 0.00 0.00 0.00 0.00 0.00 0.00 0.00 0.00 0.00 0.00 0.00 0.00 0.00 0.00 0.01 0.01 0.00 0.00
0.21 0.09 0.02 0.07 0.00 0.00 0.00 0.01 0.01 0.02 0.02 0.02 0.01 0.00 0.00 0.00 0.00 0.00 0.00 0.00 0.00 0.00 0.00 0.00 0.00 0.00 0.00 0.00 0.00 0.00 0.00 0.00 0.00 0.00 0.00 0.00 0.00 0.00 0.00 0.00 0.01 0.02 0.01
0.31 0.24 0.04 0.03 0.02 0.01 0.01 0.01 0.01 0.01 0.02 0.02 0.01 0.00 0.00 0.00 0.00 0.00 0.00 0.00 0.00 0.00 0.00 0.00 0.00 0.00 0.00 0.00 0.00 0.00 0.00 0.00 0.00 0.00 0.00 0.00 0.00 0.00 0.00 0.00 0.00 0.00 0.02
0.10 0.10 0.03 0.02 0.02 0.02 0.01 0.03 0.03 0.03 0.02 0.02 0.02 0.01 0.00 0.00 0.00 0.00 0.00 0.00 0.00 0.00 0.00 0.00 0.00 0.00 0.00 0.00 0.00 0.00 0.00 0.00 0.00 0.00 0.00 0.00 0.00 0.00 0.00 0.00 0.00 0.00 0.01
0.09 0.08 0.04 0.05 0.04 0.01 0.06 0.06 0.04 0.04 0.05 0.04 0.04 0.03 0.02 0.00 0.00 0.00 0.00 0.00 0.00 0.00 0.00 0.00 0.00 0.00 0.00 0.00 0.00 0.00 0.00 0.00 0.00 0.00 0.00 0.00 0.00 0.00 0.00 0.01 0.01 0.01 0.01
0.06 0.02 0.01 0.01 0.01 0.02 0.06 0.07 0.13 0.11 0.10 0.08 0.06 0.04 0.03 0.03 0.03 0.06 0.12 0.11 0.06 0.01 0.00 0.00 0.00 0.00 0.00 0.00 0.00 0.00 0.00 0.00 0.00 0.00 0.00 0.00 0.00 0.00 0.00 0.00 0.00 0.01 0.02
0.02 0.02 0.01 0.01 0.01 0.05 0.07 0.08 0.11 0.10 0.09 0.07 0.08 0.08 0.09 0.10 0.10 0.14 0.16 0.14 0.09 0.02 0.00 0.00 0.00 0.00 0.00 0.00 0.00 0.00 0.00 0.00 0.00 0.00 0.00 0.00 0.00 0.00 0.00 0.00 0.00 0.00 0.01
0.02 0.01 0.01 0.01 0.02 0.04 0.06 0.08 0.08 0.09 0.15 0.24 0.25 0.23 0.22 0.19 0.16 0.13 0.09 0.09 0.08 0.02 0.00 0.00 0.00 0.00 0.00 0.00 0.00 0.00 0.00 0.00 0.00 0.00 0.00 0.00 0.00 0.00 0.00 0.00 0.00 0.00 0.00
0.04 0.02 0.06 0.06 0.03 0.03 0.04 0.09 0.17 0.26 0.31 0.29 0.26 0.22 0.17 0.11 0.07 0.06 0.06 0.06 0.06 0.04 0.01 0.00 0.00 0.00 0.00 0.00 0.00 0.00 0.00 0.00 0.00 0.00 0.00 0.00 0.00 0.00 0.00 0.00 0.00 0.00 0.00
0.18 0.26 0.22 0.13 0.10 0.14 0.25 0.43 0.49 0.45 0.35 0.27 0.22 0.17 0.12 0.09 0.08 0.09 0.11 0.10 0.12 0.16 0.15 0.05 0.01 0.00 0.00 0.00 0.00 0.00 0.00 0.00 0.00 0.00 0.00 0.00 0.00 0.00 0.01 0.01 0.01 0.00 0.00
0.46 0.41 0.38 0.41 0.64 0.80 0.73 0.59 0.50 0.41 0.33 0.28 0.22 0.20 0.20 0.19 0.21 0.22 0.24 0.27 0.29 0.31 0.26 0.09 0.03 0.00 0.00 0.00 0.00 0.00 0.00 0.00 0.00 0.00 0.00 0.00 0.00 0.00 0.00 0.01 0.01 0.01 0.02
0.69 0.82 0.89 0.75 0.65 0.71 0.84 0.89 0.79 0.70 0.62 0.55 0.47 0.47 0.44 0.42 0.44 0.34 0.27 0.22 0.17 0.15 0.16 0.13 0.06 0.02 0.00 0.00 0.00 0.00 0.00 0.00 0.00 0.00 0.00 0.00 0.00 0.00 0.00 0.01 0.01 0.01 0.01
1.15 1.18 1.15 1.02 0.90 0.79 0.64 0.55 0.46 0.36 0.29 0.26 0.25 0.25 0.22 0.22 0.22 0.20 0.18 0.16 0.14 0.13 0.13 0.12 0.07 0.02 0.02 0.02 0.01 0.01 0.00 0.00 0.00 0.00 0.00 0.00 0.00 0.00 0.01 0.00 0.00 0.00 0.00
0.92 0.72 0.68 0.53 0.27 0.13 0.08 0.08 0.10 0.12 0.14 0.16 0.16 0.16 0.17 0.17 0.17 0.22 0.25 0.25 0.25 0.26 0.22 0.17 0.13 0.10 0.10 0.09 0.08 0.08 0.06 0.03 0.02 0.00 0.00 0.00 0.00 0.00 0.00 0.00 0.00 0.01 0.00
0.34 0.28 0.21 0.16 0.12 0.08 0.10 0.10 0.08 0.08 0.10 0.13 0.16 0.19 0.20 0.24 0.26 0.23 0.20 0.17 0.21 0.25 0.25 0.25 0.25 0.23 0.20 0.17 0.15 0.14 0.10 0.06 0.04 0.01 0.01 0.00 0.00 0.00 0.00 0.00 0.00 0.00 0.01
0.16 0.14 0.15 0.13 0.15 0.14 0.27 0.25 0.21 0.18 0.22 0.24 0.24 0.20 0.19 0.31 0.25 0.30 0.31 0.32 0.30 0.31 0.32 0.33 0.30 0.28 0.27 0.25 0.20 0.16 0.13 0.10 0.07 0.01 0.00 0.00 0.00 0.00 0.00 0.00 0.00 0.00 0.00
0.10 0.10 0.10 0.10 0.13 0.19 0.45 0.31 0.31 0.18 0.19 0.25 0.31 0.37 0.42 0.45 0.46 0.35 0.35 0.32 0.28 0.27 0.24 0.25 0.28 0.28 0.25 0.19 0.14 0.09 0.05 0.03 0.02 0.01 0.00 0.00 0.00 0.00 0.00 0.00 0.00 0.00 0.00
0.09 0.11 0.15 0.23 0.26 0.39 0.53 0.36 0.39 0.30 0.34 0.39 0.38 0.32 0.27 0.23 0.21 0.17 0.13 0.14 0.16 0.18 0.18 0.16 0.15 0.12 0.08 0.05 0.05 0.05 0.05 0.04 0.02 0.00 0.01 0.03 0.00 0.00 0.00 0.00 0.00 0.00 0.00
0.13 0.16 0.17 0.19 0.19 0.26 0.38 0.25 0.20 0.13 0.14 0.13 0.11 0.10 0.10 0.10 0.17 0.16 0.14 0.15 0.13 0.10 0.08 0.07 0.08 0.07 0.06 0.06 0.05 0.06 0.05 0.06 0.04 0.01 0.00 0.03 0.01 0.00 0.00 0.00 0.00 0.00 0.00
0.13 0.13 0.15 0.12 0.16 0.11 0.19 0.14 0.08 0.03 0.05 0.06 0.08 0.12 0.18 0.12 0.11 0.08 0.08 0.10 0.12 0.09 0.09 0.09 0.09 0.05 0.02 0.02 0.02 0.05 0.07 0.13 0.11 0.09 0.01 0.07 0.02 0.03 0.05 0.00 0.00 0.00 0.00

GFSMA_prec_precacc24_102.txt.gz
Total_Precipitation_Accumulation
0.06 0.06 0.04 0.00 0.00 0.00 0.00 0.00 0.00 0.00 0.00 0.00 0.00 0.00 0.00 0.00 0.00 0.00 0.00 0.00 0.00 0.00 0.00 0.00 0.00 0.00 0.00 0.00 0.00 0.00 0.00 0.00 0.00 0.00 0.00 0.00 0.00 0.00 0.00 0.00 0.00 0.00 0.00
0.03 0.00 0.02 0.02 0.00 0.00 0.00 0.00 0.00 0.00 0.00 0.00 0.00 0.00 0.00 0.00 0.00 0.00 0.00 0.00 0.00 0.00 0.00 0.00 0.00 0.00 0.00 0.00 0.00 0.00 0.00 0.00 0.00 0.00 0.00 0.00 0.01 0.01 0.00 0.00 0.00 0.00 0.00
0.03 0.01 0.03 0.03 0.01 0.00 0.00 0.00 0.00 0.00 0.00 0.00 0.00 0.00 0.00 0.00 0.00 0.00 0.00 0.00 0.00 0.00 0.00 0.00 0.00 0.00 0.00 0.00 0.00 0.00 0.00 0.00 0.00 0.00 0.00 0.01 0.02 0.01 0.01 0.01 0.00 0.00 0.01
0.11 0.08 0.05 0.02 0.00 0.00 0.00 0.00 0.00 0.00 0.00 0.00 0.00 0.00 0.00 0.00 0.00 0.00 0.00 0.00 0.00 0.00 0.00 0.00 0.00 0.00 0.00 0.00 0.00 0.00 0.00 0.00 0.00 0.00 0.00 0.00 0.01 0.01 0.01 0.01 0.00 0.00 0.01
0.19 0.03 0.04 0.06 0.03 0.00 0.00 0.00 0.00 0.00 0.00 0.00 0.00 0.00 0.00 0.00 0.00 0.00 0.00 0.00 0.00 0.00 0.00 0.00 0.00 0.00 0.00 0.00 0.00 0.00 0.00 0.00 0.00 0.00 0.00 0.00 0.00 0.00 0.00 0.00 0.00 0.00 0.01
0.33 0.16 0.10 0.05 0.06 0.03 0.02 0.00 0.00 0.00 0.00 0.00 0.00 0.00 0.00 0.00 0.00 0.00 0.00 0.00 0.00 0.00 0.00 0.00 0.00 0.00 0.00 0.00 0.00 0.00 0.00 0.00 0.00 0.00 0.00 0.00 0.00 0.00 0.00 0.00 0.00 0.00 0.00
0.21 0.20 0.07 0.05 0.01 0.01 0.03 0.00 0.00 0.01 0.01 0.01 0.00 0.00 0.00 0.00 0.00 0.00 0.00 0.00 0.00 0.00 0.00 0.00 0.00 0.00 0.00 0.00 0.00 0.00 0.00 0.00 0.00 0.00 0.00 0.00 0.00 0.00 0.00 0.00 0.00 0.00 0.00
0.22 0.12 0.03 0.08 0.00 0.00 0.01 0.01 0.01 0.02 0.02 0.02 0.01 0.00 0.00 0.00 0.00 0.00 0.00 0.00 0.00 0.00 0.00 0.00 0.00 0.00 0.00 0.00 0.00 0.00 0.00 0.00 0.00 0.00 0.00 0.00 0.00 0.00 0.00 0.00 0.00 0.00 0.00
0.35 0.27 0.07 0.05 0.03 0.01 0.01 0.01 0.01 0.01 0.02 0.02 0.02 0.00 0.00 0.00 0.00 0.00 0.00 0.00 0.00 0.00 0.00 0.00 0.00 0.00 0.00 0.00 0.00 0.00 0.00 0.00 0.00 0.00 0.00 0.00 0.00 0.00 0.00 0.00 0.00 0.00 0.00
0.22 0.15 0.07 0.05 0.04 0.03 0.01 0.03 0.03 0.03 0.02 0.02 0.02 0.01 0.00 0.00 0.01 0.00 0.00 0.00 0.00 0.00 0.00 0.00 0.00 0.00 0.00 0.00 0.00 0.00 0.00 0.00 0.00 0.00 0.00 0.00 0.00 0.00 0.01 0.00 0.00 0.00 0.00
0.21 0.12 0.09 0.07 0.07 0.06 0.10 0.07 0.04 0.04 0.05 0.04 0.04 0.03 0.02 0.01 0.01 0.01 0.01 0.00 0.00 0.00 0.00 0.00 0.00 0.00 0.00 0.00 0.00 0.00 0.00 0.00 0.00 0.00 0.00 0.00 0.00 0.00 0.01 0.02 0.02 0.02 0.01
0.19 0.14 0.10 0.07 0.08 0.09 0.14 0.12 0.15 0.11 0.10 0.08 0.06 0.06 0.03 0.03 0.04 0.07 0.12 0.13 0.10 0.03 0.00 0.00 0.00 0.00 0.00 0.00 0.00 0.00 0.00 0.00 0.00 0.00 0.00 0.00 0.00 0.00 0.00 0.01 0.02 0.03 0.03
0.08 0.07 0.06 0.05 0.07 0.10 0.12 0.16 0.16 0.15 0.11 0.10 0.10 0.13 0.14 0.11 0.11 0.15 0.17 0.15 0.11 0.05 0.03 0.01 0.00 0.00 0.00 0.00 0.00 0.00 0.00 0.00 0.00 0.00 0.00 0.00 0.00 0.00 0.00 0.00 0.00 0.01 0.01
0.03 0.02 0.02 0.02 0.03 0.07 0.08 0.14 0.20 0.19 0.23 0.31 0.32 0.28 0.28 0.23 0.17 0.13 0.10 0.10 0.11 0.05 0.04 0.03 0.01 0.02 0.01 0.01 0.01 0.01 0.00 0.00 0.00 0.00 0.00 0.00 0.00 0.00 0.00 0.00 0.00 0.00 0.00
0.04 0.02 0.06 0.05 0.03 0.03 0.05 0.11 0.19 0.30 0.34 0.33 0.31 0.29 0.25 0.16 0.13 0.10 0.07 0.07 0.08 0.09 0.05 0.02 0.01 0.01 0.02 0.06 0.07 0.05 0.03 0.02 0.02 0.02 0.02 0.01 0.00 0.00 0.00 0.00 0.00 0.00 0.00
0.16 0.26 0.22 0.12 0.08 0.08 0.16 0.35 0.44 0.41 0.37 0.30 0.27 0.21 0.18 0.12 0.11 0.13 0.13 0.12 0.14 0.21 0.33 0.18 0.10 0.07 0.09 0.09 0.06 0.05 0.05 0.05 0.04 0.03 0.02 0.02 0.01 0.01 0.01 0.01 0.01 0.00 0.00
0.42 0.37 0.30 0.25 0.41 0.62 0.58 0.47 0.42 0.38 0.34 0.29 0.24 0.22 0.21 0.22 0.27 0.27 0.30 0.35 0.38 0.42 0.48 0.26 0.12 0.10 0.09 0.07 0.03 0.04 0.04 0.04 0.02 0.03 0.02 0.02 0.03 0.03 0.01 0.02 0.02 0.01 0.02
0.48 0.43 0.42 0.42 0.45 0.58 0.77 0.85 0.78 0.69 0.62 0.55 0.48 0.49 0.46 0.45 0.48 0.39 0.34 0.30 0.27 0.29 0.42 0.40 0.17 0.13 0.11 0.07 0.04 0.05 0.03 0.01 0.01 0.03 0.03 0.01 0.02 0.03 0.04 0.05 0.03 0.03 0.03
0.91 0.99 1.02 0.87 0.73 0.66 0.56 0.52 0.46 0.36 0.29 0.27 0.25 0.27 0.25 0.27 0.25 0.23 0.24 0.27 0.33 0.39 0.42 0.33 0.21 0.16 0.14 0.12 0.11 0.11 0.08 0.06 0.04 0.08 0.09 0.05 0.05 0.06 0.07 0.08 0.07 0.06 0.05
0.77 0.56 0.48 0.31 0.16 0.10 0.07 0.08 0.10 0.12 0.15 0.19 0.21 0.22 0.22 0.27 0.31 0.44 0.56 0.59 0.55 0.44 0.34 0.30 0.28 0.28 0.25 0.24 0.25 0.30 0.32 0.32 0.32 0.32 0.30 0.22 0.16 0.14 0.12 0.12 0.13 0.13 0.12
0.29 0.23 0.17 0.14 0.12 0.09 0.11 0.10 0.10 0.12 0.14 0.18 0.26 0.36 0.42 0.56 0.53 0.42 0.34 0.24 0.27 0.32 0.34 0.36 0.38 0.37 0.38 0.40 0.41 0.45 0.47 0.44 0.41 0.36 0.33 0.21 0.14 0.12 0.12 0.12 0.13 0.13 0.12
0.16 0.14 0.15 0.14 0.15 0.14 0.28 0.26 0.23 0.23 0.30 0.35 0.39 0.36 0.35 0.52 0.37 0.46 0.42 0.42 0.38 0.36 0.36 0.38 0.40 0.40 0.43 0.45 0.45 0.45 0.43 0.41 0.35 0.19 0.19 0.15 0.12 0.10 0.03 0.02 0.05 0.07 0.07
0.10 0.10 0.10 0.11 0.15 0.21 0.51 0.35 0.39 0.23 0.27 0.36 0.41 0.46 0.49 0.54 0.59 0.39 0.42 0.36 0.31 0.31 0.29 0.28 0.31 0.33 0.33 0.30 0.27 0.25 0.22 0.19 0.16 0.12 0.15 0.11 0.04 0.06 0.01 0.01 0.01 0.01 0.01
0.11 0.12 0.17 0.26 0.31 0.48 0.63 0.43 0.46 0.32 0.37 0.44 0.43 0.37 0.31 0.26 0.24 0.19 0.14 0.14 0.16 0.18 0.20 0.19 0.18 0.17 0.14 0.12 0.13 0.15 0.16 0.17 0.13 0.08 0.13 0.21 0.03 0.02 0.00 0.00 0.00 0.00 0.00
0.17 0.20 0.23 0.26 0.27 0.33 0.49 0.31 0.25 0.14 0.16 0.16 0.13 0.12 0.12 0.10 0.19 0.17 0.14 0.15 0.13 0.12 0.12 0.11 0.12 0.14 0.15 0.15 0.15 0.17 0.17 0.18 0.12 0.04 0.06 0.22 0.10 0.05 0.02 0.00 0.00 0.00 0.00
0.18 0.19 0.22 0.18 0.24 0.15 0.28 0.19 0.12 0.04 0.07 0.07 0.08 0.13 0.21 0.13 0.12 0.09 0.08 0.09 0.10 0.10 0.10 0.09 0.08 0.06 0.04 0.04 0.05 0.09 0.12 0.23 0.21 0.17 0.11 0.23 0.11 0.12 0.16 0.01 0.00 0.00 0.01

GFSMA_prec_precacc24_105.txt.gz
Total_Precipitation_Accumulation
0.07 0.07 0.04 0.00 0.00 0.00 0.00 0.00 0.00 0.00 0.00 0.00 0.00 0.00 0.00 0.00 0.00 0.00 0.00 0.00 0.00 0.00 0.00 0.00 0.00 0.00 0.00 0.00 0.00 0.00 0.00 0.00 0.00 0.00 0.00 0.00 0.00 0.00 0.00 0.00 0.00 0.00 0.00
0.04 0.00 0.02 0.02 0.00 0.00 0.00 0.00 0.00 0.00 0.00 0.00 0.00 0.00 0.00 0.00 0.00 0.00 0.00 0.00 0.00 0.00 0.00 0.00 0.00 0.00 0.00 0.00 0.00 0.00 0.00 0.00 0.00 0.00 0.00 0.00 0.01 0.01 0.00 0.00 0.00 0.00 0.00
0.06 0.01 0.00 0.03 0.01 0.00 0.00 0.00 0.00 0.00 0.00 0.00 0.00 0.00 0.00 0.00 0.00 0.00 0.00 0.00 0.00 0.00 0.00 0.00 0.00 0.00 0.00 0.00 0.00 0.00 0.00 0.00 0.00 0.00 0.00 0.01 0.01 0.00 0.01 0.01 0.00 0.00 0.01
0.17 0.05 0.00 0.01 0.00 0.00 0.00 0.00 0.00 0.00 0.00 0.00 0.00 0.00 0.00 0.00 0.00 0.00 0.00 0.00 0.00 0.00 0.00 0.00 0.00 0.00 0.00 0.00 0.00 0.00 0.00 0.00 0.00 0.00 0.00 0.00 0.00 0.00 0.00 0.00 0.00 0.00 0.01
0.25 0.05 0.03 0.04 0.03 0.01 0.00 0.00 0.00 0.00 0.00 0.00 0.00 0.00 0.00 0.00 0.00 0.00 0.00 0.00 0.00 0.00 0.00 0.00 0.00 0.00 0.00 0.00 0.00 0.00 0.00 0.00 0.00 0.00 0.00 0.00 0.00 0.00 0.00 0.00 0.00 0.00 0.00
0.21 0.11 0.06 0.03 0.10 0.04 0.04 0.01 0.00 0.00 0.00 0.00 0.00 0.00 0.00 0.00 0.00 0.00 0.00 0.00 0.00 0.00 0.00 0.00 0.00 0.00 0.00 0.00 0.00 0.00 0.00 0.00 0.00 0.00 0.00 0.00 0.00 0.00 0.00 0.00 0.00 0.00 0.00
0.16 0.12 0.05 0.03 0.05 0.03 0.05 0.02 0.00 0.01 0.01 0.01 0.00 0.00 0.00 0.00 0.00 0.00 0.00 0.00 0.00 0.00 0.00 0.00 0.00 0.00 0.00 0.00 0.00 0.00 0.00 0.00 0.00 0.00 0.00 0.00 0.00 0.00 0.00 0.00 0.00 0.00 0.00
0.14 0.08 0.03 0.07 0.01 0.03 0.03 0.02 0.01 0.02 0.02 0.02 0.01 0.00 0.00 0.00 0.00 0.00 0.00 0.00 0.00 0.00 0.00 0.00 0.00 0.00 0.00 0.00 0.00 0.00 0.00 0.00 0.00 0.00 0.00 0.00 0.00 0.00 0.00 0.00 0.00 0.00 0.00
0.16 0.11 0.06 0.04 0.03 0.03 0.02 0.02 0.01 0.01 0.02 0.02 0.02 0.00 0.00 0.00 0.00 0.00 0.00 0.00 0.00 0.00 0.00 0.00 0.00 0.00 0.00 0.00 0.00 0.00 0.00 0.00 0.00 0.00 0.00 0.00 0.00 0.00 0.00 0.00 0.00 0.00 0.00
0.24 0.15 0.07 0.04 0.04 0.04 0.02 0.03 0.03 0.03 0.02 0.02 0.02 0.01 0.00 0.00 0.01 0.00 0.00 0.00 0.00 0.00 0.00 0.00 0.00 0.00 0.00 0.00 0.00 0.00 0.00 0.00 0.00 0.00 0.00 0.00 0.00 0.00 0.01 0.00 0.00 0.00 0.00
0.28 0.16 0.09 0.07 0.07 0.06 0.11 0.08 0.05 0.06 0.06 0.05 0.04 0.03 0.02 0.01 0.01 0.01 0.01 0.00 0.00 0.00 0.00 0.00 0.00 0.00 0.00 0.00 0.00 0.00 0.00 0.00 0.00 0.00 0.00 0.00 0.00 0.00 0.01 0.02 0.02 0.02 0.01
0.39 0.24 0.13 0.09 0.09 0.11 0.17 0.14 0.17 0.13 0.12 0.09 0.06 0.06 0.03 0.03 0.04 0.07 0.12 0.13 0.10 0.03 0.00 0.00 0.00 0.00 0.00 0.00 0.00 0.00 0.00 0.00 0.00 0.00 0.00 0.00 0.00 0.00 0.00 0.01 0.02 0.03 0.03
0.40 0.23 0.13 0.10 0.12 0.13 0.16 0.18 0.19 0.17 0.13 0.12 0.10 0.14 0.14 0.11 0.11 0.15 0.17 0.15 0.11 0.05 0.03 0.01 0.00 0.00 0.00 0.00 0.00 0.00 0.00 0.01 0.00 0.00 0.00 0.00 0.00 0.00 0.00 0.00 0.01 0.02 0.03
0.16 0.19 0.13 0.10 0.12 0.13 0.12 0.16 0.23 0.23 0.26 0.33 0.34 0.30 0.29 0.23 0.17 0.13 0.10 0.10 0.11 0.05 0.04 0.03 0.01 0.02 0.01 0.01 0.01 0.01 0.02 0.03 0.02 0.01 0.02 0.02 0.02 0.01 0.02 0.02 0.02 0.02 0.02
0.05 0.07 0.12 0.10 0.07 0.06 0.06 0.10 0.15 0.27 0.35 0.34 0.31 0.28 0.25 0.16 0.14 0.11 0.09 0.07 0.09 0.09 0.05 0.02 0.01 0.01 0.02 0.06 0.07 0.05 0.03 0.03 0.03 0.03 0.05 0.05 0.04 0.04 0.05 0.04 0.03 0.03 0.03
0.12 0.22 0.20 0.12 0.07 0.05 0.05 0.12 0.22 0.32 0.33 0.26 0.22 0.20 0.17 0.12 0.11 0.13 0.14 0.12 0.14 0.21 0.33 0.18 0.10 0.07 0.09 0.10 0.08 0.07 0.06 0.06 0.05 0.03 0.02 0.03 0.03 0.03 0.05 0.05 0.05 0.05 0.05
0.29 0.29 0.26 0.18 0.16 0.21 0.25 0.26 0.29 0.27 0.25 0.24 0.22 0.21 0.21 0.22 0.27 0.28 0.31 0.37 0.39 0.43 0.49 0.26 0.12 0.11 0.12 0.09 0.06 0.05 0.04 0.04 0.03 0.03 0.02 0.02 0.04 0.06 0.07 0.09 0.11 0.14 0.15
0.47 0.42 0.41 0.38 0.41 0.55 0.73 0.80 0.71 0.64 0.58 0.53 0.47 0.49 0.46 0.45 0.49 0.40 0.35 0.31 0.28 0.30 0.45 0.45 0.23 0.22 0.21 0.12 0.06 0.06 0.04 0.02 0.01 0.03 0.04 0.02 0.03 0.05 0.09 0.13 0.16 0.18 0.17
0.90 0.98 1.02 0.86 0.73 0.66 0.55 0.48 0.43 0.36 0.29 0.27 0.26 0.29 0.28 0.30 0.28 0.25 0.26 0.30 0.38 0.51 0.66 0.60 0.39 0.28 0.21 0.16 0.13 0.13 0.10 0.07 0.07 0.16 0.13 0.09 0.06 0.07 0.08 0.08 0.09 0.10 0.12
0.75 0.51 0.43 0.30 0.15 0.08 0.07 0.07 0.10 0.13 0.17 0.22 0.24 0.25 0.23 0.27 0.32 0.44 0.57 0.69 0.76 0.76 0.63 0.48 0.38 0.35 0.31 0.26 0.26 0.31 0.33 0.33 0.33 0.34 0.37 0.29 0.22 0.16 0.13 0.13 0.14 0.15 0.17
0.25 0.21 0.16 0.14 0.11 0.09 0.10 0.10 0.10 0.13 0.16 0.19 0.26 0.36 0.43 0.59 0.56 0.46 0.42 0.38 0.41 0.44 0.42 0.42 0.42 0.38 0.38 0.40 0.41 0.45 0.47 0.44 0.40 0.36 0.33 0.22 0.15 0.15 0.16 0.20 0.20 0.19 0.20
0.16 0.14 0.15 0.13 0.15 0.14 0.28 0.27 0.23 0.24 0.30 0.36 0.41 0.37 0.37 0.56 0.42 0.55 0.53 0.50 0.42 0.41 0.39 0.39 0.40 0.40 0.43 0.45 0.45 0.45 0.43 0.40 0.33 0.19 0.19 0.15 0.12 0.10 0.04 0.03 0.07 0.12 0.15
0.10 0.10 0.10 0.11 0.15 0.21 0.53 0.37 0.40 0.24 0.28 0.38 0.45 0.51 0.57 0.66 0.72 0.48 0.54 0.43 0.35 0.34 0.30 0.29 0.31 0.33 0.33 0.30 0.26 0.24 0.21 0.19 0.17 0.12 0.16 0.12 0.04 0.06 0.01 0.01 0.01 0.01 0.02
0.11 0.12 0.17 0.27 0.32 0.49 0.66 0.45 0.48 0.34 0.41 0.49 0.50 0.46 0.41 0.41 0.44 0.37 0.21 0.16 0.17 0.18 0.20 0.19 0.18 0.17 0.14 0.12 0.13 0.15 0.16 0.17 0.13 0.08 0.14 0.24 0.03 0.02 0.00 0.00 0.00 0.00 0.01
0.18 0.21 0.25 0.27 0.28 0.36 0.54 0.34 0.28 0.15 0.19 0.21 0.21 0.24 0.29 0.30 0.34 0.22 0.14 0.15 0.13 0.12 0.12 0.11 0.12 0.14 0.15 0.15 0.15 0.16 0.16 0.17 0.11 0.04 0.07 0.24 0.11 0.06 0.02 0.00 0.00 0.00 0.01
0.20 0.21 0.26 0.23 0.30 0.18 0.35 0.24 0.16 0.05 0.11 0.18 0.22 0.27 0.31 0.17 0.12 0.09 0.08 0.09 0.10 0.10 0.10 0.09 0.08 0.06 0.04 0.04 0.04 0.06 0.09 0.17 0.20 0.18 0.13 0.23 0.12 0.12 0.17 0.01 0.00 0.00 0.01

GFSMA_prec_precacc24_108.txt.gz
Total_Precipitation_Accumulation
0.24 0.09 0.05 0.00 0.00 0.00 0.00 0.00 0.00 0.00 0.00 0.00 0.00 0.00 0.00 0.00 0.00 0.00 0.00 0.00 0.00 0.00 0.00 0.00 0.00 0.00 0.00 0.00 0.00 0.00 0.00 0.00 0.00 0.00 0.00 0.00 0.00 0.00 0.00 0.00 0.00 0.00 0.00
0.20 0.02 0.02 0.02 0.00 0.00 0.00 0.00 0.00 0.00 0.00 0.00 0.00 0.00 0.00 0.00 0.00 0.00 0.00 0.00 0.00 0.00 0.00 0.00 0.00 0.00 0.00 0.00 0.00 0.00 0.00 0.00 0.00 0.00 0.00 0.00 0.01 0.00 0.00 0.00 0.00 0.00 0.00
0.17 0.03 0.01 0.03 0.01 0.00 0.00 0.00 0.00 0.00 0.00 0.00 0.00 0.00 0.00 0.00 0.00 0.00 0.00 0.00 0.00 0.00 0.00 0.00 0.00 0.00 0.00 0.00 0.00 0.00 0.00 0.00 0.00 0.00 0.00 0.00 0.00 0.00 0.00 0.00 0.00 0.00 0.00
0.21 0.05 0.00 0.01 0.00 0.00 0.00 0.00 0.00 0.00 0.00 0.00 0.00 0.00 0.00 0.00 0.00 0.00 0.00 0.00 0.00 0.00 0.00 0.00 0.00 0.00 0.00 0.00 0.00 0.00 0.00 0.00 0.00 0.00 0.00 0.00 0.00 0.00 0.00 0.00 0.00 0.00 0.00
0.27 0.05 0.03 0.04 0.03 0.00 0.00 0.00 0.00 0.00 0.00 0.00 0.00 0.00 0.00 0.00 0.00 0.00 0.00 0.00 0.00 0.00 0.00 0.00 0.00 0.00 0.00 0.00 0.00 0.00 0.00 0.00 0.00 0.00 0.00 0.00 0.00 0.00 0.00 0.00 0.00 0.00 0.00
0.20 0.08 0.04 0.03 0.10 0.04 0.04 0.01 0.00 0.00 0.00 0.00 0.00 0.00 0.00 0.00 0.00 0.00 0.00 0.00 0.00 0.00 0.00 0.00 0.00 0.00 0.00 0.00 0.00 0.00 0.00 0.00 0.00 0.00 0.00 0.00 0.00 0.00 0.00 0.00 0.00 0.00 0.00
0.17 0.10 0.03 0.01 0.04 0.03 0.05 0.02 0.00 0.01 0.01 0.01 0.00 0.00 0.00 0.00 0.00 0.00 0.00 0.00 0.00 0.00 0.00 0.00 0.00 0.00 0.00 0.00 0.00 0.00 0.00 0.00 0.00 0.00 0.00 0.00 0.00 0.00 0.00 0.00 0.00 0.00 0.00
0.14 0.08 0.03 0.01 0.01 0.03 0.03 0.02 0.01 0.02 0.02 0.02 0.01 0.00 0.00 0.00 0.00 0.00 0.00 0.00 0.00 0.00 0.00 0.00 0.00 0.00 0.00 0.00 0.00 0.00 0.00 0.00 0.00 0.00 0.00 0.00 0.00 0.00 0.00 0.00 0.00 0.00 0.00
0.13 0.08 0.06 0.02 0.03 0.03 0.02 0.02 0.01 0.01 0.02 0.02 0.02 0.00 0.00 0.00 0.00 0.00 0.00 0.00 0.00 0.00 0.00 0.00 0.00 0.00 0.00 0.00 0.00 0.00 0.00 0.00 0.00 0.00 0.00 0.00 0.00 0.00 0.00 0.00 0.00 0.00 0.00
0.20 0.12 0.08 0.04 0.04 0.05 0.03 0.04 0.03 0.03 0.02 0.02 0.02 0.01 0.00 0.00 0.01 0.00 0.00 0.00 0.00 0.00 0.00 0.00 0.00 0.00 0.00 0.00 0.00 0.00 0.00 0.00 0.00 0.00 0.00 0.00 0.00 0.00 0.01 0.00 0.00 0.00 0.00
0.39 0.18 0.11 0.06 0.08 0.08 0.16 0.10 0.06 0.08 0.07 0.05 0.04 0.03 0.02 0.01 0.01 0.01 0.01 0.00 0.00 0.00 0.00 0.00 0.00 0.00 0.00 0.00 0.00 0.00 0.00 0.00 0.00 0.00 0.00 0.00 0.00 0.00 0.01 0.02 0.02 0.02 0.01
0.66 0.39 0.18 0.11 0.12 0.13 0.21 0.21 0.22 0.16 0.16 0.12 0.07 0.06 0.03 0.03 0.04 0.07 0.12 0.13 0.10 0.03 0.00 0.00 0.00 0.00 0.00 0.00 0.00 0.00 0.00 0.00 0.00 0.00 0.00 0.00 0.00 0.00 0.01 0.02 0.03 0.04 0.04
0.78 0.52 0.26 0.15 0.17 0.19 0.23 0.28 0.30 0.25 0.17 0.16 0.11 0.13 0.14 0.11 0.11 0.15 0.17 0.15 0.11 0.05 0.03 0.01 0.00 0.00 0.00 0.00 0.00 0.00 0.00 0.01 0.00 0.00 0.00 0.00 0.00 0.00 0.01 0.03 0.06 0.07 0.07
0.47 0.49 0.40 0.21 0.19 0.21 0.22 0.26 0.33 0.29 0.23 0.23 0.23 0.23 0.25 0.21 0.17 0.14 0.10 0.10 0.12 0.05 0.04 0.03 0.01 0.02 0.01 0.01 0.01 0.01 0.02 0.03 0.02 0.02 0.02 0.02 0.02 0.02 0.02 0.05 0.08 0.11 0.12
0.22 0.34 0.41 0.39 0.27 0.21 0.16 0.18 0.16 0.17 0.20 0.18 0.16 0.20 0.22 0.16 0.16 0.13 0.09 0.08 0.10 0.09 0.05 0.02 0.01 0.01 0.02 0.06 0.07 0.05 0.03 0.04 0.04 0.03 0.05 0.05 0.04 0.05 0.05 0.06 0.06 0.07 0.09
0.11 0.16 0.34 0.38 0.32 0.22 0.15 0.14 0.12 0.13 0.15 0.13 0.13 0.13 0.14 0.10 0.11 0.14 0.14 0.13 0.15 0.22 0.33 0.18 0.10 0.07 0.09 0.10 0.08 0.07 0.06 0.06 0.05 0.03 0.02 0.03 0.03 0.03 0.04 0.05 0.05 0.07 0.08
0.10 0.15 0.18 0.35 0.35 0.33 0.30 0.29 0.29 0.25 0.23 0.22 0.19 0.20 0.20 0.21 0.27 0.28 0.32 0.37 0.39 0.43 0.49 0.26 0.12 0.11 0.12 0.12 0.11 0.15 0.14 0.08 0.04 0.03 0.02 0.02 0.04 0.06 0.07 0.08 0.11 0.15 0.19
0.24 0.28 0.29 0.36 0.45 0.56 0.73 0.80 0.71 0.64 0.58 0.52 0.47 0.49 0.46 0.46 0.49 0.40 0.35 0.31 0.29 0.31 0.48 0.48 0.28 0.29 0.34 0.25 0.15 0.11 0.06 0.02 0.01 0.05 0.05 0.02 0.03 0.05 0.09 0.13 0.16 0.19 0.20
0.69 0.90 0.97 0.84 0.72 0.65 0.55 0.48 0.41 0.33 0.27 0.25 0.26 0.29 0.28 0.30 0.28 0.25 0.26 0.30 0.40 0.55 0.70 0.66 0.48 0.34 0.26 0.21 0.17 0.15 0.11 0.07 0.07 0.20 0.16 0.11 0.07 0.07 0.07 0.08 0.09 0.10 0.12
0.68 0.46 0.39 0.27 0.14 0.08 0.04 0.04 0.06 0.10 0.14 0.21 0.24 0.25 0.23 0.27 0.32 0.44 0.57 0.69 0.77 0.78 0.70 0.60 0.50 0.46 0.37 0.28 0.27 0.31 0.33 0.33 0.33 0.34 0.38 0.30 0.23 0.17 0.14 0.14 0.14 0.15 0.17
0.20 0.18 0.15 0.13 0.11 0.07 0.06 0.06 0.08 0.13 0.15 0.18 0.26 0.36 0.43 0.59 0.57 0.47 0.43 0.38 0.43 0.49 0.52 0.54 0.52 0.44 0.40 0.40 0.41 0.45 0.47 0.44 0.40 0.36 0.33 0.22 0.15 0.15 0.18 0.22 0.22 0.22 0.23
0.14 0.13 0.14 0.12 0.13 0.11 0.18 0.19 0.20 0.22 0.30 0.36 0.41 0.39 0.40 0.61 0.48 0.62 0.59 0.59 0.56 0.57 0.53 0.49 0.47 0.43 0.45 0.46 0.45 0.45 0.43 0.37 0.31 0.19 0.19 0.15 0.12 0.10 0.04 0.03 0.08 0.12 0.16
0.08 0.09 0.10 0.10 0.14 0.19 0.50 0.36 0.40 0.24 0.30 0.40 0.47 0.54 0.62 0.74 0.81 0.54 0.66 0.62 0.54 0.51 0.41 0.34 0.33 0.33 0.33 0.30 0.26 0.23 0.20 0.18 0.17 0.12 0.16 0.12 0.04 0.06 0.01 0.01 0.01 0.02 0.03
0.08 0.10 0.16 0.24 0.27 0.47 0.65 0.44 0.49 0.35 0.44 0.53 0.53 0.49 0.46 0.48 0.56 0.51 0.42 0.39 0.33 0.23 0.20 0.19 0.19 0.17 0.15 0.13 0.13 0.15 0.16 0.16 0.12 0.08 0.14 0.24 0.03 0.02 0.00 0.00 0.00 0.00 0.02
0.16 0.18 0.24 0.28 0.29 0.38 0.58 0.37 0.30 0.15 0.21 0.26 0.29 0.35 0.41 0.43 0.53 0.43 0.27 0.18 0.14 0.12 0.12 0.11 0.12 0.14 0.15 0.16 0.14 0.15 0.14 0.16 0.09 0.03 0.07 0.23 0.10 0.06 0.02 0.00 0.00 0.00 0.01
0.21 0.23 0.29 0.26 0.33 0.19 0.39 0.26 0.18 0.06 0.16 0.26 0.33 0.42 0.48 0.29 0.21 0.14 0.10 0.09 0.10 0.10 0.10 0.09 0.08 0.06 0.04 0.04 0.04 0.06 0.09 0.16 0.15 0.14 0.12 0.19 0.11 0.13 0.17 0.01 0.00 0.00 0.01

GFSMA_prec_precacc24_111.txt.gz
Total_Precipitation_Accumulation
0.36 0.19 0.07 0.01 0.00 0.00 0.00 0.00 0.00 0.00 0.00 0.00 0.00 0.00 0.00 0.00 0.00 0.00 0.00 0.00 0.00 0.00 0.00 0.00 0.00 0.00 0.00 0.00 0.00 0.00 0.00 0.00 0.00 0.00 0.00 0.00 0.00 0.00 0.00 0.00 0.00 0.00 0.00
0.30 0.08 0.04 0.02 0.00 0.00 0.00 0.00 0.00 0.00 0.00 0.00 0.00 0.00 0.00 0.00 0.00 0.00 0.00 0.00 0.00 0.00 0.00 0.00 0.00 0.00 0.00 0.00 0.00 0.00 0.00 0.00 0.00 0.00 0.00 0.00 0.00 0.00 0.00 0.00 0.00 0.00 0.00
0.25 0.06 0.01 0.03 0.01 0.00 0.00 0.00 0.00 0.00 0.00 0.00 0.00 0.00 0.00 0.00 0.00 0.00 0.00 0.00 0.00 0.00 0.00 0.00 0.00 0.00 0.00 0.00 0.00 0.00 0.00 0.00 0.00 0.00 0.00 0.00 0.00 0.00 0.00 0.00 0.00 0.00 0.00
0.27 0.07 0.01 0.01 0.00 0.00 0.00 0.00 0.00 0.00 0.00 0.00 0.00 0.00 0.00 0.00 0.00 0.00 0.00 0.00 0.00 0.00 0.00 0.00 0.00 0.00 0.00 0.00 0.00 0.00 0.00 0.00 0.00 0.00 0.00 0.00 0.00 0.00 0.00 0.00 0.00 0.00 0.00
0.32 0.07 0.03 0.05 0.03 0.00 0.00 0.00 0.00 0.00 0.00 0.00 0.00 0.00 0.00 0.00 0.00 0.00 0.00 0.00 0.00 0.00 0.00 0.00 0.00 0.00 0.00 0.00 0.00 0.00 0.00 0.00 0.00 0.00 0.00 0.00 0.00 0.00 0.00 0.00 0.00 0.00 0.00
0.24 0.10 0.05 0.03 0.10 0.04 0.04 0.01 0.00 0.00 0.00 0.00 0.00 0.00 0.00 0.00 0.00 0.00 0.00 0.00 0.00 0.00 0.00 0.00 0.00 0.00 0.00 0.00 0.00 0.00 0.00 0.00 0.00 0.00 0.00 0.00 0.00 0.00 0.00 0.00 0.00 0.00 0.00
0.21 0.10 0.02 0.02 0.04 0.03 0.05 0.02 0.00 0.01 0.01 0.01 0.00 0.00 0.00 0.00 0.00 0.00 0.00 0.00 0.00 0.00 0.00 0.00 0.00 0.00 0.00 0.00 0.00 0.00 0.00 0.00 0.00 0.00 0.00 0.00 0.00 0.00 0.00 0.00 0.00 0.00 0.00
0.20 0.10 0.03 0.01 0.01 0.03 0.03 0.02 0.01 0.02 0.02 0.02 0.01 0.00 0.00 0.00 0.00 0.00 0.00 0.00 0.00 0.00 0.00 0.00 0.00 0.00 0.00 0.00 0.00 0.00 0.00 0.00 0.00 0.00 0.00 0.00 0.00 0.00 0.00 0.00 0.00 0.00 0.00
0.23 0.11 0.07 0.02 0.01 0.02 0.02 0.02 0.01 0.01 0.02 0.02 0.02 0.00 0.00 0.00 0.00 0.00 0.00 0.00 0.00 0.00 0.00 0.00 0.00 0.00 0.00 0.00 0.00 0.00 0.00 0.00 0.00 0.00 0.00 0.00 0.00 0.00 0.00 0.00 0.00 0.00 0.00
0.24 0.16 0.10 0.05 0.04 0.05 0.03 0.03 0.03 0.03 0.02 0.02 0.02 0.01 0.00 0.00 0.01 0.00 0.00 0.00 0.00 0.00 0.00 0.00 0.00 0.00 0.00 0.00 0.00 0.00 0.00 0.00 0.00 0.00 0.00 0.00 0.00 0.00 0.01 0.00 0.00 0.00 0.00
0.40 0.19 0.13 0.07 0.09 0.08 0.15 0.09 0.05 0.07 0.07 0.05 0.04 0.03 0.02 0.01 0.01 0.01 0.01 0.00 0.00 0.00 0.00 0.00 0.00 0.00 0.00 0.00 0.00 0.00 0.00 0.00 0.00 0.00 0.00 0.00 0.00 0.00 0.01 0.02 0.03 0.03 0.03
0.79 0.42 0.21 0.13 0.16 0.16 0.19 0.17 0.18 0.15 0.16 0.13 0.08 0.06 0.03 0.03 0.04 0.07 0.12 0.13 0.10 0.03 0.00 0.00 0.00 0.00 0.00 0.00 0.00 0.00 0.00 0.00 0.00 0.00 0.00 0.00 0.00 0.00 0.01 0.02 0.05 0.08 0.08
1.29 0.74 0.33 0.20 0.21 0.22 0.23 0.28 0.31 0.28 0.21 0.22 0.15 0.13 0.12 0.08 0.09 0.12 0.17 0.16 0.12 0.05 0.03 0.01 0.00 0.00 0.00 0.00 0.00 0.00 0.00 0.01 0.00 0.00 0.00 0.00 0.00 0.00 0.01 0.03 0.06 0.08 0.10
0.86 0.83 0.61 0.32 0.27 0.29 0.31 0.37 0.47 0.44 0.36 0.33 0.32 0.22 0.21 0.14 0.10 0.09 0.09 0.11 0.13 0.05 0.04 0.03 0.01 0.02 0.01 0.01 0.01 0.01 0.02 0.03 0.02 0.02 0.02 0.02 0.02 0.02 0.02 0.05 0.08 0.11 0.12
0.44 0.58 0.66 0.55 0.39 0.35 0.36 0.42 0.42 0.49 0.47 0.39 0.33 0.31 0.25 0.16 0.17 0.13 0.10 0.08 0.11 0.10 0.05 0.02 0.01 0.01 0.02 0.06 0.07 0.05 0.03 0.04 0.04 0.04 0.07 0.07 0.05 0.05 0.05 0.06 0.06 0.07 0.09
0.27 0.38 0.52 0.55 0.50 0.43 0.39 0.38 0.35 0.38 0.43 0.36 0.27 0.21 0.18 0.13 0.13 0.16 0.17 0.16 0.17 0.25 0.34 0.18 0.10 0.07 0.09 0.10 0.08 0.07 0.07 0.08 0.12 0.12 0.09 0.06 0.04 0.03 0.04 0.04 0.05 0.07 0.08
0.13 0.29 0.38 0.54 0.50 0.39 0.44 0.56 0.52 0.41 0.36 0.36 0.28 0.24 0.22 0.23 0.29 0.30 0.33 0.39 0.41 0.44 0.50 0.26 0.12 0.11 0.13 0.12 0.12 0.16 0.18 0.16 0.12 0.08 0.04 0.04 0.05 0.06 0.07 0.09 0.11 0.14 0.17
0.05 0.19 0.30 0.50 0.68 0.78 0.86 0.91 0.85 0.74 0.65 0.58 0.50 0.51 0.47 0.47 0.50 0.41 0.36 0.31 0.29 0.31 0.49 0.50 0.30 0.31 0.37 0.27 0.18 0.13 0.09 0.04 0.03 0.08 0.08 0.03 0.03 0.05 0.09 0.13 0.15 0.18 0.19
0.03 0.15 0.49 0.63 0.72 0.80 0.74 0.56 0.45 0.34 0.27 0.25 0.24 0.28 0.27 0.30 0.28 0.24 0.26 0.30 0.40 0.56 0.72 0.70 0.54 0.40 0.32 0.26 0.22 0.20 0.14 0.09 0.08 0.21 0.16 0.11 0.07 0.07 0.07 0.08 0.09 0.10 0.12
0.09 0.23 0.30 0.21 0.10 0.05 0.07 0.05 0.05 0.07 0.11 0.18 0.21 0.23 0.22 0.26 0.31 0.44 0.57 0.69 0.78 0.79 0.71 0.62 0.54 0.51 0.45 0.36 0.30 0.31 0.33 0.33 0.33 0.34 0.38 0.30 0.23 0.17 0.14 0.14 0.14 0.15 0.17
0.14 0.15 0.13 0.12 0.09 0.06 0.05 0.05 0.06 0.10 0.12 0.14 0.22 0.34 0.42 0.59 0.57 0.47 0.43 0.38 0.44 0.51 0.57 0.61 0.58 0.50 0.45 0.44 0.44 0.46 0.47 0.44 0.40 0.36 0.33 0.22 0.15 0.15 0.18 0.22 0.22 0.22 0.22
0.08 0.09 0.12 0.10 0.10 0.08 0.13 0.11 0.10 0.09 0.13 0.21 0.36 0.38 0.40 0.63 0.48 0.64 0.63 0.65 0.63 0.65 0.60 0.54 0.55 0.54 0.52 0.49 0.46 0.45 0.43 0.37 0.31 0.19 0.19 0.15 0.12 0.10 0.04 0.03 0.08 0.12 0.16
0.05 0.06 0.07 0.06 0.08 0.12 0.34 0.26 0.33 0.20 0.27 0.39 0.46 0.54 0.63 0.77 0.85 0.57 0.72 0.67 0.60 0.59 0.51 0.46 0.42 0.38 0.35 0.31 0.26 0.23 0.20 0.18 0.17 0.12 0.16 0.12 0.04 0.06 0.01 0.01 0.01 0.02 0.03
0.06 0.07 0.11 0.16 0.20 0.36 0.50 0.31 0.36 0.25 0.40 0.54 0.55 0.52 0.50 0.53 0.62 0.57 0.46 0.45 0.42 0.31 0.25 0.21 0.19 0.18 0.15 0.13 0.13 0.15 0.16 0.16 0.12 0.08 0.13 0.22 0.03 0.02 0.00 0.00 0.00 0.00 0.02
0.14 0.14 0.17 0.17 0.18 0.27 0.48 0.31 0.27 0.16 0.23 0.29 0.32 0.39 0.45 0.48 0.67 0.55 0.35 0.26 0.18 0.14 0.12 0.11 0.12 0.14 0.15 0.16 0.14 0.15 0.14 0.15 0.09 0.03 0.07 0.23 0.10 0.06 0.02 0.00 0.00 0.00 0.01
0.16 0.17 0.23 0.23 0.30 0.16 0.38 0.26 0.19 0.05 0.16 0.28 0.37 0.50 0.59 0.38 0.30 0.19 0.12 0.10 0.11 0.10 0.10 0.09 0.08 0.06 0.04 0.04 0.04 0.06 0.09 0.15 0.14 0.13 0.12 0.18 0.10 0.11 0.15 0.01 0.00 0.00 0.01

GFSMA_prec_precacc24_114.txt.gz
Total_Precipitation_Accumulation
0.41 0.21 0.13 0.04 0.01 0.00 0.00 0.00 0.00 0.00 0.00 0.00 0.00 0.00 0.00 0.00 0.00 0.00 0.00 0.00 0.00 0.00 0.00 0.00 0.00 0.00 0.00 0.00 0.00 0.00 0.00 0.00 0.00 0.00 0.00 0.00 0.00 0.00 0.00 0.00 0.00 0.00 0.00
0.38 0.16 0.09 0.04 0.00 0.00 0.00 0.00 0.00 0.00 0.00 0.00 0.00 0.00 0.00 0.00 0.00 0.00 0.00 0.00 0.00 0.00 0.00 0.00 0.00 0.00 0.00 0.00 0.00 0.00 0.00 0.00 0.00 0.00 0.00 0.00 0.00 0.00 0.00 0.00 0.00 0.00 0.00
0.31 0.18 0.11 0.05 0.01 0.00 0.00 0.00 0.00 0.00 0.00 0.00 0.00 0.00 0.00 0.00 0.00 0.00 0.00 0.00 0.00 0.00 0.00 0.00 0.00 0.00 0.00 0.00 0.00 0.00 0.00 0.00 0.00 0.00 0.00 0.00 0.00 0.00 0.00 0.00 0.00 0.00 0.00
0.35 0.18 0.11 0.06 0.02 0.01 0.00 0.00 0.00 0.00 0.00 0.00 0.00 0.00 0.00 0.00 0.00 0.00 0.00 0.00 0.00 0.00 0.00 0.00 0.00 0.00 0.00 0.00 0.00 0.00 0.00 0.00 0.00 0.00 0.00 0.00 0.00 0.00 0.00 0.00 0.00 0.00 0.00
0.66 0.14 0.08 0.08 0.05 0.02 0.00 0.00 0.00 0.00 0.00 0.00 0.00 0.00 0.00 0.00 0.00 0.00 0.00 0.00 0.00 0.00 0.00 0.00 0.00 0.00 0.00 0.00 0.00 0.00 0.00 0.00 0.00 0.00 0.00 0.00 0.00 0.00 0.00 0.00 0.00 0.00 0.00
0.83 0.23 0.09 0.05 0.11 0.05 0.04 0.01 0.00 0.00 0.00 0.00 0.00 0.00 0.00 0.00 0.00 0.00 0.00 0.00 0.00 0.00 0.00 0.00 0.00 0.00 0.00 0.00 0.00 0.00 0.00 0.00 0.00 0.00 0.00 0.00 0.00 0.00 0.00 0.00 0.00 0.00 0.00
0.57 0.31 0.06 0.04 0.06 0.04 0.05 0.02 0.00 0.01 0.01 0.01 0.00 0.00 0.00 0.00 0.00 0.00 0.00 0.00 0.00 0.00 0.00 0.00 0.00 0.00 0.00 0.00 0.00 0.00 0.00 0.00 0.00 0.00 0.00 0.00 0.00 0.00 0.00 0.00 0.00 0.00 0.00
0.39 0.17 0.07 0.03 0.02 0.03 0.03 0.02 0.01 0.02 0.02 0.02 0.01 0.00 0.00 0.00 0.00 0.00 0.00 0.00 0.00 0.00 0.00 0.00 0.00 0.00 0.00 0.00 0.00 0.00 0.00 0.00 0.00 0.00 0.00 0.00 0.00 0.00 0.00 0.00 0.00 0.00 0.00
0.32 0.17 0.07 0.03 0.02 0.02 0.01 0.01 0.00 0.01 0.02 0.02 0.02 0.00 0.00 0.00 0.00 0.00 0.00 0.00 0.00 0.00 0.00 0.00 0.00 0.00 0.00 0.00 0.00 0.00 0.00 0.00 0.00 0.00 0.00 0.00 0.00 0.00 0.00 0.00 0.00 0.00 0.00
0.35 0.25 0.13 0.05 0.04 0.04 0.02 0.02 0.01 0.02 0.02 0.02 0.02 0.01 0.00 0.00 0.01 0.00 0.00 0.00 0.00 0.00 0.00 0.00 0.00 0.00 0.00 0.00 0.00 0.00 0.00 0.00 0.00 0.00 0.00 0.00 0.00 0.01 0.01 0.01 0.01 0.00 0.00
0.45 0.27 0.18 0.09 0.09 0.09 0.14 0.06 0.04 0.05 0.06 0.04 0.04 0.03 0.02 0.01 0.01 0.01 0.01 0.00 0.00 0.00 0.00 0.00 0.00 0.00 0.00 0.00 0.00 0.00 0.00 0.00 0.00 0.00 0.00 0.00 0.00 0.00 0.02 0.04 0.06 0.07 0.07
0.81 0.45 0.26 0.17 0.16 0.16 0.19 0.15 0.13 0.11 0.14 0.12 0.08 0.05 0.03 0.03 0.04 0.06 0.12 0.12 0.10 0.03 0.00 0.00 0.00 0.00 0.00 0.00 0.00 0.00 0.00 0.00 0.00 0.00 0.00 0.00 0.00 0.00 0.00 0.03 0.06 0.10 0.12
1.33 0.76 0.35 0.22 0.23 0.23 0.24 0.26 0.24 0.21 0.18 0.20 0.14 0.13 0.12 0.07 0.07 0.10 0.14 0.13 0.10 0.05 0.03 0.01 0.00 0.00 0.00 0.00 0.00 0.00 0.00 0.01 0.00 0.00 0.00 0.00 0.00 0.00 0.01 0.03 0.06 0.09 0.11
0.91 0.94 0.66 0.35 0.29 0.30 0.32 0.36 0.45 0.40 0.32 0.31 0.34 0.24 0.20 0.13 0.09 0.08 0.07 0.10 0.12 0.06 0.04 0.03 0.01 0.02 0.01 0.01 0.01 0.01 0.02 0.03 0.02 0.02 0.02 0.02 0.02 0.02 0.04 0.07 0.10 0.12 0.13
0.52 0.76 0.89 0.75 0.53 0.41 0.41 0.46 0.47 0.50 0.47 0.46 0.46 0.47 0.35 0.23 0.23 0.19 0.13 0.11 0.13 0.11 0.05 0.02 0.01 0.02 0.03 0.06 0.07 0.05 0.03 0.04 0.04 0.04 0.07 0.09 0.09 0.10 0.10 0.08 0.08 0.08 0.10
0.34 0.52 0.75 0.91 0.80 0.58 0.53 0.58 0.58 0.53 0.60 0.60 0.55 0.50 0.43 0.29 0.26 0.27 0.25 0.22 0.23 0.32 0.41 0.18 0.11 0.07 0.09 0.10 0.08 0.07 0.07 0.09 0.14 0.16 0.13 0.10 0.07 0.06 0.05 0.05 0.06 0.07 0.08
0.14 0.36 0.59 0.81 0.85 0.62 0.56 0.68 0.62 0.51 0.50 0.62 0.64 0.53 0.42 0.39 0.44 0.39 0.41 0.45 0.47 0.50 0.55 0.27 0.14 0.11 0.13 0.12 0.12 0.16 0.18 0.17 0.15 0.13 0.07 0.07 0.08 0.08 0.08 0.09 0.11 0.14 0.17
0.03 0.14 0.38 0.69 0.75 0.74 0.67 0.75 0.77 0.76 0.83 0.77 0.67 0.73 0.67 0.59 0.55 0.44 0.39 0.34 0.31 0.33 0.52 0.52 0.30 0.31 0.37 0.28 0.19 0.15 0.11 0.07 0.06 0.12 0.11 0.05 0.04 0.06 0.09 0.13 0.16 0.18 0.19
0.00 0.03 0.08 0.27 0.51 0.58 0.74 0.68 0.61 0.53 0.49 0.41 0.40 0.38 0.34 0.32 0.27 0.22 0.24 0.30 0.40 0.57 0.75 0.74 0.56 0.42 0.34 0.29 0.26 0.23 0.17 0.12 0.10 0.22 0.16 0.11 0.08 0.07 0.07 0.08 0.09 0.10 0.12
0.01 0.01 0.02 0.07 0.17 0.22 0.30 0.44 0.30 0.25 0.22 0.19 0.21 0.23 0.21 0.24 0.30 0.42 0.55 0.67 0.77 0.78 0.71 0.63 0.58 0.57 0.49 0.40 0.35 0.36 0.36 0.34 0.34 0.35 0.38 0.30 0.23 0.17 0.14 0.14 0.14 0.15 0.17
0.03 0.04 0.05 0.07 0.11 0.11 0.20 0.21 0.17 0.13 0.15 0.14 0.17 0.26 0.30 0.46 0.49 0.44 0.42 0.37 0.43 0.51 0.58 0.63 0.63 0.57 0.51 0.49 0.47 0.48 0.47 0.44 0.41 0.36 0.33 0.22 0.15 0.15 0.18 0.22 0.22 0.22 0.22
0.03 0.03 0.04 0.05 0.07 0.07 0.15 0.15 0.14 0.09 0.13 0.16 0.21 0.23 0.27 0.49 0.39 0.58 0.60 0.65 0.64 0.65 0.61 0.57 0.59 0.57 0.56 0.51 0.47 0.46 0.43 0.37 0.31 0.19 0.19 0.15 0.12 0.10 0.04 0.03 0.08 0.12 0.16
0.03 0.03 0.03 0.03 0.06 0.10 0.28 0.15 0.21 0.11 0.16 0.27 0.37 0.46 0.56 0.72 0.83 0.55 0.71 0.67 0.62 0.62 0.54 0.48 0.45 0.40 0.36 0.31 0.26 0.23 0.20 0.18 0.17 0.12 0.16 0.12 0.04 0.06 0.01 0.01 0.01 0.02 0.03
0.06 0.07 0.10 0.15 0.15 0.22 0.29 0.16 0.19 0.09 0.17 0.32 0.38 0.39 0.44 0.53 0.64 0.58 0.47 0.46 0.43 0.34 0.27 0.23 0.20 0.18 0.15 0.13 0.13 0.15 0.15 0.16 0.12 0.08 0.13 0.22 0.03 0.02 0.00 0.00 0.00 0.00 0.02
0.14 0.14 0.16 0.16 0.15 0.17 0.33 0.19 0.14 0.04 0.12 0.23 0.29 0.39 0.46 0.50 0.75 0.59 0.36 0.27 0.19 0.15 0.13 0.11 0.12 0.14 0.15 0.16 0.14 0.14 0.13 0.14 0.09 0.03 0.07 0.23 0.10 0.06 0.02 0.00 0.00 0.00 0.01
0.13 0.15 0.20 0.19 0.24 0.13 0.31 0.21 0.17 0.04 0.16 0.28 0.37 0.52 0.62 0.41 0.39 0.25 0.15 0.12 0.12 0.11 0.10 0.09 0.08 0.06 0.04 0.04 0.04 0.05 0.07 0.13 0.13 0.12 0.12 0.18 0.10 0.10 0.14 0.01 0.00 0.00 0.01

GFSMA_prec_precacc24_117.txt.gz
Total_Precipitation_Accumulation
0.44 0.23 0.16 0.12 0.06 0.00 0.00 0.00 0.00 0.00 0.00 0.00 0.00 0.00 0.00 0.00 0.00 0.00 0.00 0.00 0.00 0.00 0.00 0.00 0.00 0.00 0.00 0.00 0.00 0.00 0.00 0.00 0.00 0.00 0.00 0.00 0.00 0.00 0.00 0.00 0.00 0.00 0.00
0.43 0.19 0.16 0.08 0.04 0.02 0.00 0.00 0.00 0.00 0.00 0.00 0.00 0.00 0.00 0.00 0.00 0.00 0.00 0.00 0.00 0.00 0.00 0.00 0.00 0.00 0.00 0.00 0.00 0.00 0.00 0.00 0.00 0.00 0.00 0.00 0.00 0.00 0.00 0.00 0.00 0.00 0.00
0.36 0.25 0.18 0.09 0.04 0.02 0.00 0.00 0.00 0.00 0.00 0.00 0.00 0.00 0.00 0.00 0.00 0.00 0.00 0.00 0.00 0.00 0.00 0.00 0.00 0.00 0.00 0.00 0.00 0.00 0.00 0.00 0.00 0.00 0.00 0.00 0.00 0.00 0.00 0.00 0.00 0.00 0.00
0.39 0.29 0.23 0.12 0.03 0.02 0.00 0.00 0.00 0.00 0.00 0.00 0.00 0.00 0.00 0.00 0.00 0.00 0.00 0.00 0.00 0.00 0.00 0.00 0.00 0.00 0.00 0.00 0.00 0.00 0.00 0.00 0.00 0.00 0.00 0.00 0.00 0.00 0.00 0.00 0.00 0.00 0.00
0.74 0.26 0.28 0.18 0.09 0.03 0.00 0.00 0.00 0.00 0.00 0.00 0.00 0.00 0.00 0.00 0.00 0.00 0.00 0.00 0.00 0.00 0.00 0.00 0.00 0.00 0.00 0.00 0.00 0.00 0.00 0.00 0.00 0.00 0.00 0.00 0.00 0.00 0.00 0.00 0.00 0.00 0.00
0.98 0.49 0.34 0.25 0.19 0.10 0.05 0.01 0.00 0.00 0.00 0.00 0.00 0.00 0.00 0.00 0.00 0.00 0.00 0.00 0.00 0.00 0.00 0.00 0.00 0.00 0.00 0.00 0.00 0.00 0.00 0.00 0.00 0.00 0.00 0.00 0.00 0.00 0.00 0.00 0.00 0.00 0.00
0.71 0.84 0.38 0.16 0.14 0.10 0.06 0.02 0.00 0.00 0.01 0.01 0.00 0.00 0.00 0.00 0.00 0.00 0.00 0.00 0.00 0.00 0.00 0.00 0.00 0.00 0.00 0.00 0.00 0.00 0.00 0.00 0.00 0.00 0.00 0.00 0.00 0.00 0.00 0.00 0.00 0.00 0.00
0.43 0.62 0.45 0.16 0.07 0.07 0.04 0.02 0.00 0.00 0.01 0.02 0.01 0.00 0.00 0.00 0.00 0.00 0.00 0.00 0.00 0.00 0.00 0.00 0.00 0.00 0.00 0.00 0.00 0.00 0.00 0.00 0.00 0.00 0.00 0.00 0.00 0.00 0.00 0.00 0.00 0.00 0.00
0.44 0.36 0.38 0.23 0.07 0.03 0.02 0.01 0.00 0.00 0.00 0.02 0.02 0.00 0.00 0.00 0.00 0.00 0.00 0.00 0.00 0.00 0.00 0.00 0.00 0.00 0.00 0.00 0.00 0.00 0.00 0.00 0.00 0.00 0.00 0.00 0.00 0.00 0.01 0.01 0.00 0.00 0.00
0.47 0.36 0.32 0.32 0.12 0.05 0.02 0.01 0.00 0.01 0.00 0.01 0.01 0.01 0.00 0.00 0.01 0.00 0.00 0.00 0.00 0.00 0.00 0.00 0.00 0.00 0.00 0.00 0.00 0.00 0.00 0.00 0.00 0.00 0.00 0.00 0.00 0.01 0.02 0.02 0.03 0.03 0.03
0.49 0.42 0.33 0.29 0.18 0.10 0.11 0.04 0.02 0.03 0.03 0.01 0.02 0.02 0.02 0.01 0.01 0.01 0.01 0.00 0.00 0.00 0.00 0.00 0.00 0.00 0.00 0.00 0.00 0.00 0.00 0.00 0.00 0.00 0.00 0.00 0.00 0.00 0.02 0.05 0.07 0.10 0.10
0.82 0.51 0.45 0.31 0.25 0.20 0.19 0.14 0.09 0.07 0.09 0.08 0.05 0.04 0.01 0.01 0.01 0.03 0.11 0.12 0.09 0.03 0.00 0.00 0.00 0.00 0.00 0.00 0.00 0.00 0.00 0.00 0.00 0.00 0.00 0.00 0.00 0.00 0.00 0.03 0.07 0.11 0.13
1.37 0.76 0.40 0.33 0.30 0.26 0.25 0.27 0.24 0.20 0.14 0.17 0.12 0.09 0.08 0.04 0.05 0.09 0.13 0.13 0.10 0.05 0.03 0.01 0.00 0.00 0.00 0.00 0.00 0.00 0.00 0.01 0.00 0.00 0.00 0.00 0.00 0.00 0.01 0.03 0.06 0.09 0.12
0.97 0.97 0.66 0.36 0.33 0.35 0.33 0.37 0.45 0.40 0.31 0.28 0.31 0.19 0.15 0.11 0.08 0.07 0.06 0.09 0.11 0.05 0.04 0.03 0.01 0.02 0.02 0.01 0.01 0.02 0.02 0.03 0.02 0.02 0.02 0.02 0.02 0.02 0.05 0.10 0.14 0.16 0.16
0.54 0.81 0.94 0.77 0.53 0.43 0.42 0.46 0.47 0.50 0.47 0.43 0.43 0.43 0.32 0.22 0.23 0.18 0.13 0.10 0.13 0.11 0.05 0.02 0.01 0.02 0.06 0.08 0.09 0.06 0.05 0.06 0.05 0.04 0.07 0.09 0.09 0.11 0.12 0.11 0.10 0.09 0.10
0.35 0.55 0.81 1.14 1.09 0.69 0.56 0.59 0.60 0.53 0.59 0.59 0.56 0.53 0.49 0.36 0.30 0.27 0.24 0.22 0.25 0.35 0.43 0.18 0.13 0.12 0.13 0.12 0.09 0.07 0.08 0.10 0.14 0.17 0.14 0.11 0.11 0.10 0.09 0.08 0.07 0.08 0.10
0.14 0.36 0.64 1.05 1.34 0.97 0.77 0.78 0.69 0.54 0.44 0.48 0.57 0.57 0.54 0.54 0.58 0.49 0.48 0.50 0.52 0.57 0.60 0.27 0.19 0.18 0.18 0.16 0.14 0.17 0.20 0.18 0.18 0.19 0.09 0.08 0.09 0.09 0.09 0.10 0.12 0.15 0.17
0.03 0.14 0.40 0.86 1.09 1.04 0.75 0.77 0.77 0.66 0.64 0.52 0.44 0.58 0.66 0.66 0.67 0.56 0.49 0.44 0.38 0.40 0.60 0.56 0.37 0.38 0.43 0.32 0.21 0.16 0.14 0.10 0.09 0.15 0.12 0.05 0.04 0.06 0.09 0.13 0.16 0.18 0.19
0.01 0.03 0.07 0.35 0.68 0.68 0.82 0.81 0.79 0.71 0.72 0.61 0.45 0.39 0.36 0.36 0.32 0.28 0.25 0.30 0.40 0.58 0.76 0.78 0.65 0.50 0.42 0.33 0.29 0.26 0.21 0.14 0.11 0.24 0.17 0.11 0.08 0.07 0.07 0.08 0.09 0.10 0.12
0.01 0.01 0.02 0.04 0.26 0.47 0.58 0.75 0.74 0.80 0.76 0.60 0.44 0.35 0.23 0.21 0.26 0.37 0.54 0.66 0.74 0.76 0.68 0.62 0.58 0.58 0.54 0.45 0.39 0.39 0.39 0.37 0.37 0.36 0.39 0.31 0.23 0.17 0.14 0.14 0.14 0.15 0.17
0.01 0.01 0.02 0.03 0.07 0.21 0.49 0.49 0.59 0.48 0.47 0.39 0.27 0.29 0.36 0.48 0.43 0.37 0.36 0.31 0.34 0.41 0.49 0.60 0.62 0.57 0.52 0.49 0.48 0.49 0.48 0.45 0.41 0.36 0.33 0.22 0.16 0.15 0.18 0.22 0.22 0.22 0.22
0.02 0.01 0.02 0.02 0.05 0.08 0.25 0.34 0.46 0.33 0.28 0.34 0.34 0.26 0.27 0.46 0.36 0.50 0.49 0.51 0.51 0.56 0.54 0.54 0.57 0.57 0.56 0.52 0.47 0.46 0.43 0.37 0.31 0.19 0.19 0.15 0.12 0.10 0.04 0.03 0.08 0.12 0.16
0.03 0.03 0.04 0.03 0.04 0.10 0.29 0.25 0.41 0.26 0.20 0.32 0.31 0.27 0.28 0.40 0.54 0.34 0.53 0.56 0.56 0.59 0.52 0.47 0.44 0.40 0.37 0.32 0.27 0.23 0.20 0.18 0.17 0.12 0.16 0.12 0.04 0.06 0.01 0.01 0.01 0.02 0.03
0.06 0.06 0.08 0.11 0.10 0.19 0.28 0.19 0.21 0.12 0.16 0.18 0.21 0.23 0.27 0.35 0.50 0.47 0.39 0.39 0.38 0.29 0.24 0.21 0.19 0.18 0.15 0.13 0.13 0.15 0.15 0.16 0.12 0.08 0.13 0.21 0.03 0.02 0.00 0.00 0.00 0.00 0.02
0.13 0.11 0.13 0.15 0.14 0.17 0.34 0.22 0.14 0.04 0.12 0.19 0.24 0.34 0.40 0.46 0.70 0.51 0.29 0.20 0.15 0.13 0.13 0.12 0.13 0.14 0.16 0.16 0.15 0.15 0.13 0.14 0.08 0.03 0.07 0.23 0.10 0.06 0.02 0.00 0.00 0.00 0.01
0.13 0.17 0.20 0.20 0.25 0.12 0.30 0.23 0.18 0.05 0.16 0.27 0.34 0.49 0.58 0.39 0.39 0.23 0.13 0.10 0.11 0.10 0.08 0.08 0.09 0.08 0.06 0.06 0.05 0.06 0.07 0.12 0.12 0.12 0.12 0.18 0.10 0.10 0.13 0.01 0.00 0.00 0.01

GFSMA_prec_precacc24_120.txt.gz
Total_Precipitation_Accumulation
0.45 0.24 0.18 0.14 0.10 0.07 0.04 0.00 0.00 0.00 0.00 0.00 0.00 0.00 0.00 0.00 0.00 0.00 0.00 0.00 0.00 0.00 0.01 0.01 0.00 0.00 0.00 0.00 0.00 0.00 0.00 0.00 0.00 0.00 0.00 0.00 0.00 0.00 0.00 0.00 0.00 0.00 0.00
0.44 0.21 0.18 0.17 0.16 0.12 0.03 0.01 0.00 0.00 0.00 0.00 0.01 0.00 0.00 0.00 0.00 0.00 0.00 0.00 0.00 0.00 0.01 0.00 0.00 0.00 0.00 0.00 0.00 0.00 0.00 0.00 0.00 0.00 0.00 0.00 0.00 0.00 0.00 0.00 0.00 0.00 0.00
0.40 0.29 0.21 0.16 0.11 0.15 0.09 0.02 0.00 0.00 0.00 0.00 0.01 0.00 0.00 0.00 0.00 0.00 0.00 0.00 0.00 0.00 0.00 0.01 0.00 0.00 0.00 0.00 0.00 0.00 0.00 0.00 0.00 0.00 0.00 0.00 0.00 0.00 0.00 0.00 0.00 0.00 0.00
0.40 0.34 0.28 0.17 0.07 0.08 0.06 0.01 0.00 0.00 0.00 0.00 0.01 0.00 0.00 0.00 0.00 0.00 0.00 0.00 0.00 0.00 0.00 0.00 0.00 0.00 0.00 0.00 0.00 0.00 0.00 0.00 0.00 0.00 0.00 0.00 0.00 0.00 0.00 0.00 0.00 0.00 0.00
0.75 0.27 0.31 0.24 0.18 0.11 0.03 0.02 0.00 0.00 0.00 0.00 0.00 0.00 0.00 0.00 0.00 0.00 0.00 0.00 0.00 0.00 0.00 0.00 0.00 0.00 0.00 0.00 0.00 0.00 0.00 0.00 0.00 0.00 0.00 0.00 0.00 0.00 0.00 0.00 0.00 0.00 0.00
1.00 0.52 0.39 0.35 0.30 0.28 0.12 0.03 0.00 0.00 0.00 0.00 0.00 0.00 0.00 0.00 0.00 0.00 0.00 0.00 0.00 0.00 0.00 0.00 0.00 0.00 0.00 0.00 0.00 0.00 0.00 0.00 0.00 0.00 0.00 0.00 0.00 0.00 0.00 0.00 0.00 0.00 0.00
0.72 0.87 0.56 0.31 0.27 0.32 0.19 0.04 0.00 0.00 0.00 0.00 0.00 0.00 0.00 0.00 0.00 0.00 0.00 0.00 0.00 0.00 0.00 0.00 0.00 0.00 0.00 0.00 0.00 0.00 0.00 0.00 0.00 0.00 0.00 0.00 0.00 0.00 0.00 0.00 0.00 0.00 0.00
0.44 0.65 0.71 0.51 0.22 0.22 0.26 0.06 0.00 0.00 0.00 0.00 0.00 0.00 0.00 0.01 0.00 0.00 0.00 0.00 0.00 0.00 0.00 0.00 0.00 0.00 0.00 0.00 0.00 0.00 0.00 0.00 0.00 0.00 0.00 0.00 0.00 0.00 0.00 0.00 0.00 0.00 0.00
0.44 0.40 0.59 0.65 0.32 0.19 0.19 0.09 0.01 0.00 0.00 0.00 0.00 0.00 0.00 0.00 0.00 0.00 0.00 0.00 0.00 0.00 0.00 0.00 0.00 0.00 0.00 0.00 0.00 0.00 0.00 0.00 0.00 0.00 0.00 0.00 0.00 0.01 0.02 0.03 0.01 0.01 0.00
0.47 0.38 0.38 0.62 0.46 0.16 0.11 0.08 0.02 0.01 0.00 0.00 0.00 0.00 0.00 0.00 0.01 0.00 0.00 0.00 0.00 0.00 0.00 0.00 0.00 0.00 0.00 0.00 0.00 0.00 0.00 0.00 0.00 0.00 0.00 0.00 0.00 0.01 0.02 0.03 0.04 0.05 0.04
0.50 0.43 0.39 0.51 0.51 0.29 0.18 0.09 0.05 0.04 0.03 0.01 0.00 0.00 0.00 0.00 0.01 0.01 0.01 0.00 0.00 0.00 0.00 0.00 0.00 0.00 0.00 0.00 0.00 0.00 0.00 0.00 0.00 0.00 0.00 0.00 0.00 0.00 0.02 0.05 0.07 0.10 0.10
0.83 0.52 0.47 0.53 0.56 0.46 0.30 0.20 0.11 0.06 0.07 0.05 0.02 0.02 0.00 0.00 0.01 0.01 0.01 0.02 0.04 0.02 0.00 0.00 0.00 0.00 0.00 0.00 0.00 0.00 0.00 0.00 0.00 0.00 0.00 0.00 0.00 0.00 0.00 0.03 0.07 0.11 0.13
1.37 0.77 0.40 0.42 0.57 0.56 0.38 0.30 0.24 0.19 0.13 0.16 0.09 0.08 0.06 0.01 0.01 0.01 0.02 0.02 0.03 0.03 0.03 0.01 0.00 0.00 0.00 0.00 0.00 0.00 0.00 0.01 0.00 0.00 0.00 0.00 0.00 0.00 0.01 0.03 0.07 0.10 0.12
0.99 0.97 0.66 0.37 0.47 0.62 0.49 0.40 0.43 0.39 0.31 0.28 0.31 0.19 0.14 0.07 0.03 0.02 0.01 0.03 0.06 0.04 0.04 0.03 0.01 0.02 0.02 0.01 0.01 0.02 0.03 0.03 0.02 0.02 0.02 0.02 0.02 0.02 0.05 0.10 0.15 0.17 0.17
0.60 0.87 0.95 0.77 0.54 0.52 0.60 0.52 0.48 0.50 0.46 0.43 0.43 0.43 0.32 0.21 0.21 0.16 0.09 0.06 0.09 0.10 0.06 0.03 0.02 0.02 0.06 0.08 0.10 0.07 0.05 0.07 0.06 0.07 0.09 0.10 0.09 0.11 0.12 0.12 0.11 0.10 0.11
0.37 0.61 0.91 1.22 1.10 0.69 0.60 0.68 0.65 0.54 0.59 0.59 0.56 0.53 0.49 0.36 0.29 0.26 0.21 0.18 0.17 0.21 0.30 0.15 0.16 0.14 0.15 0.14 0.12 0.09 0.08 0.10 0.15 0.17 0.14 0.12 0.11 0.11 0.10 0.08 0.07 0.09 0.10
0.15 0.39 0.72 1.22 1.58 1.14 0.83 0.79 0.73 0.57 0.45 0.48 0.56 0.53 0.46 0.44 0.47 0.37 0.34 0.34 0.30 0.30 0.38 0.24 0.25 0.26 0.25 0.22 0.20 0.22 0.23 0.20 0.20 0.20 0.09 0.08 0.09 0.09 0.09 0.10 0.12 0.15 0.17
0.04 0.15 0.41 0.92 1.32 1.57 1.16 0.90 0.81 0.67 0.61 0.44 0.32 0.41 0.42 0.36 0.34 0.31 0.31 0.29 0.28 0.31 0.51 0.53 0.49 0.51 0.55 0.42 0.30 0.23 0.19 0.13 0.10 0.18 0.13 0.05 0.04 0.06 0.09 0.13 0.16 0.18 0.19
0.01 0.03 0.07 0.36 0.72 0.92 1.29 1.11 0.86 0.75 0.78 0.67 0.48 0.35 0.34 0.32 0.24 0.18 0.19 0.25 0.38 0.57 0.76 0.82 0.75 0.64 0.52 0.41 0.35 0.32 0.24 0.18 0.13 0.26 0.17 0.12 0.08 0.07 0.07 0.08 0.09 0.10 0.12
0.01 0.01 0.02 0.05 0.28 0.58 0.84 0.97 0.97 1.04 0.99 0.92 0.78 0.66 0.46 0.35 0.32 0.33 0.42 0.55 0.64 0.68 0.66 0.63 0.61 0.61 0.53 0.41 0.36 0.37 0.38 0.36 0.36 0.35 0.39 0.31 0.23 0.17 0.14 0.14 0.14 0.15 0.17
0.00 0.01 0.01 0.02 0.07 0.27 0.69 0.75 0.87 0.80 0.93 0.84 0.73 0.71 0.72 0.73 0.54 0.41 0.38 0.36 0.37 0.41 0.46 0.52 0.51 0.46 0.41 0.38 0.39 0.39 0.40 0.40 0.38 0.36 0.33 0.23 0.16 0.15 0.18 0.22 0.22 0.22 0.22
0.01 0.01 0.01 0.01 0.04 0.08 0.38 0.53 0.65 0.59 0.62 0.72 0.67 0.49 0.44 0.54 0.44 0.52 0.48 0.50 0.48 0.46 0.37 0.31 0.36 0.38 0.36 0.33 0.32 0.33 0.35 0.34 0.30 0.18 0.19 0.15 0.12 0.10 0.04 0.03 0.08 0.13 0.16
0.03 0.03 0.04 0.03 0.04 0.09 0.24 0.30 0.54 0.45 0.38 0.53 0.63 0.48 0.36 0.46 0.52 0.30 0.46 0.43 0.40 0.42 0.34 0.27 0.22 0.18 0.16 0.16 0.16 0.18 0.18 0.17 0.15 0.11 0.16 0.13 0.04 0.06 0.02 0.02 0.03 0.03 0.03
0.05 0.06 0.08 0.10 0.09 0.18 0.26 0.21 0.31 0.37 0.26 0.28 0.35 0.42 0.38 0.40 0.54 0.49 0.38 0.34 0.29 0.18 0.13 0.09 0.07 0.07 0.08 0.09 0.10 0.12 0.13 0.15 0.12 0.08 0.13 0.22 0.05 0.03 0.01 0.01 0.01 0.01 0.02
0.11 0.10 0.12 0.14 0.13 0.16 0.34 0.25 0.17 0.13 0.20 0.29 0.29 0.38 0.43 0.46 0.66 0.47 0.24 0.13 0.08 0.06 0.08 0.07 0.07 0.09 0.10 0.11 0.11 0.12 0.13 0.15 0.10 0.05 0.07 0.22 0.10 0.06 0.02 0.00 0.00 0.00 0.01
0.12 0.17 0.18 0.19 0.26 0.13 0.31 0.26 0.20 0.06 0.18 0.28 0.36 0.51 0.55 0.35 0.34 0.18 0.07 0.04 0.04 0.04 0.03 0.03 0.05 0.06 0.05 0.06 0.06 0.07 0.07 0.11 0.12 0.11 0.12 0.17 0.10 0.10 0.12 0.01 0.00 0.00 0.01